GFSMW_500_spd_000.txt.gz
Wind_Speed
11 14 17 19 21 19 22 25 25 30 38 47 53 52 51 43 41 42 46 51 49 46 47 49 53 56 58 60 63 66 69 70 72 74 74 75 76 76 75 75 76 78 79
14 16 20 19 20 24 25 30 36 42 46 50 52 52 50 48 48 45 44 44 45 46 51 54 58 60 63 66 70 74 76 78 79 80 80 81 80 79 79 79 79 79 79
15 17 18 20 28 33 37 37 41 44 46 50 50 44 42 41 42 42 43 43 48 53 57 61 63 65 68 70 75 77 79 83 84 84 85 88 91 92 89 87 85 83 81
19 22 21 26 30 37 37 40 42 49 50 49 47 45 42 42 42 43 46 50 54 59 62 62 63 68 74 78 80 83 88 91 94 94 95 96 95 95 95 94 91 90 90
23 26 31 36 37 33 39 42 52 52 49 47 45 43 42 44 47 49 52 55 57 59 61 66 71 78 82 85 87 92 95 97 96 94 94 93 93 95 97 96 93 92 91
27 26 34 39 41 40 44 48 41 42 43 41 40 42 44 46 47 51 55 59 62 65 71 76 83 88 89 91 93 96 97 96 95 96 94 90 87 83 80 79 76 72 71
28 25 29 38 39 42 43 39 43 41 41 42 45 46 48 51 54 58 62 64 67 73 78 82 86 87 90 94 97 98 101 102 101 94 87 81 71 64 65 61 63 68 71
21 22 28 32 37 40 41 43 41 42 46 49 50 50 51 53 57 61 64 68 72 77 81 85 89 93 95 99 101 101 101 97 87 81 71 64 65 68 59 61 66 67 53
20 23 27 32 37 36 37 40 42 41 43 46 48 51 55 58 61 63 67 73 77 80 85 91 95 99 101 101 102 104 99 80 72 66 61 63 61 57 60 66 55 57 52
23 26 28 29 32 35 39 43 47 50 52 53 54 57 59 62 64 68 73 77 82 87 91 95 97 100 101 102 100 85 75 66 62 60 54 54 58 58 55 55 56 57 58
27 30 33 36 38 41 44 47 51 54 57 58 59 61 63 65 70 74 77 81 86 89 93 94 95 99 100 93 77 65 59 57 51 49 53 56 51 49 53 54 56 55 53
34 37 40 42 44 47 49 51 54 57 58 60 62 64 66 70 74 76 80 85 87 91 92 96 98 99 89 73 60 54 45 40 41 40 41 45 47 50 52 52 49 45 45
38 40 43 45 47 49 51 54 57 58 61 62 63 66 70 73 75 78 83 86 90 92 98 100 99 86 68 52 44 36 32 33 39 41 41 44 49 46 47 43 42 44 47
40 42 45 47 49 51 53 56 59 60 60 62 65 69 72 75 77 82 86 88 90 97 99 97 83 65 48 37 34 35 33 35 39 43 43 50 45 48 43 40 43 46 48
42 45 47 50 52 53 55 59 58 59 60 64 68 71 74 77 80 84 87 89 96 96 95 83 65 49 39 34 35 35 36 39 44 46 46 51 48 47 40 40 42 44 47
45 47 51 53 54 55 57 58 58 59 62 65 69 73 76 79 83 86 87 97 97 94 84 67 51 41 35 33 36 37 39 42 46 46 48 48 47 41 37 39 42 46 49
47 50 55 56 56 56 59 59 58 61 64 69 72 75 78 82 86 88 95 97 93 84 69 53 42 37 33 35 37 38 41 44 48 46 49 46 44 36 36 38 43 47 46
50 52 56 55 56 58 59 58 60 64 69 71 74 78 81 84 87 93 96 92 82 69 56 44 38 34 33 36 36 38 41 45 47 46 50 45 39 34 36 38 44 46 43
51 53 54 54 56 59 59 60 64 67 70 74 78 81 83 85 92 93 90 84 70 58 45 37 33 32 34 36 36 38 41 43 43 44 46 43 35 34 34 39 42 41 39
52 53 54 55 58 60 61 63 66 69 73 78 79 81 83 90 92 88 84 71 60 49 38 34 32 32 33 35 36 38 41 42 41 44 41 41 32 31 32 37 39 38 35
55 55 55 58 60 62 63 65 67 72 77 78 79 81 90 93 87 82 71 61 52 41 36 33 33 34 34 36 37 39 42 38 41 41 36 35 29 28 30 35 36 36 32
56 56 58 60 62 63 65 67 71 77 78 78 80 89 91 88 81 70 61 52 44 36 34 34 34 32 33 34 37 39 39 38 40 39 34 31 25 24 27 32 31 32 29
58 58 60 62 63 66 68 71 76 78 76 79 88 89 87 80 69 61 53 45 38 34 34 33 31 31 33 34 36 37 38 39 39 38 31 28 22 22 24 27 27 28 26
59 60 60 61 66 69 71 74 78 74 79 87 87 87 79 68 61 53 46 40 35 32 30 30 31 32 33 34 35 36 37 38 37 36 30 27 22 20 21 22 22 23 23
58 59 62 63 68 70 73 78 73 79 84 85 85 77 67 62 55 46 39 35 31 29 29 31 31 31 31 33 34 35 36 36 36 35 28 26 24 18 17 17 19 19 19
58 61 64 67 69 72 75 71 79 82 82 82 74 66 62 58 48 40 34 31 32 32 29 29 28 29 32 33 33 34 35 35 34 32 27 23 25 18 16 14 16 16 15

GFSMW_500_spd_003.txt.gz
Wind_Speed
9 12 14 17 20 18 20 21 25 34 39 43 44 45 47 52 53 48 40 37 38 39 40 41 44 47 51 55 57 59 62 65 68 72 73 71 71 74 77 80 81 81 82
11 14 18 17 21 21 25 29 34 39 40 44 46 51 55 53 49 43 40 39 39 40 43 47 51 56 59 59 60 63 66 70 72 74 77 80 81 83 86 88 90 90 89
13 14 17 21 23 26 31 35 41 35 39 44 48 51 47 45 42 41 42 44 46 48 51 56 59 60 58 61 66 70 72 77 80 85 90 93 95 97 98 98 99 98 96
11 15 18 23 25 34 35 38 42 43 47 50 48 50 50 47 46 47 48 49 50 52 55 58 60 61 65 70 74 78 82 88 91 95 98 100 105 108 107 103 100 98 97
17 21 24 25 26 30 34 36 42 42 44 45 46 44 42 43 45 47 49 51 54 56 59 62 65 70 75 78 82 86 90 93 96 98 101 103 102 101 99 97 89 82 80
19 23 26 26 26 32 36 35 39 43 45 48 48 48 49 51 53 54 54 54 57 61 63 67 72 76 79 83 87 91 95 98 100 102 104 100 96 91 84 77 67 58 51
17 19 22 23 25 28 32 35 38 42 45 47 48 50 51 51 52 54 57 59 61 64 68 73 77 80 84 89 93 97 98 101 103 101 96 86 77 69 62 58 54 51 46
12 15 19 22 26 29 32 35 38 42 45 47 50 51 52 53 55 58 60 62 65 69 73 76 79 83 88 92 95 100 105 104 101 88 76 68 59 54 51 49 48 50 52
13 16 20 25 28 31 35 38 40 43 46 50 52 55 57 58 59 60 62 65 69 72 75 79 83 88 92 95 101 105 101 91 78 67 59 54 47 40 39 42 44 45 43
15 19 23 27 30 32 35 39 42 47 49 51 55 58 58 60 60 61 64 67 71 74 79 83 86 90 94 100 104 99 85 71 58 50 42 33 34 37 40 42 46 50 51
20 24 28 31 35 38 42 46 50 52 53 53 55 58 60 59 60 63 66 69 74 79 82 86 90 94 99 102 97 79 63 50 40 37 35 32 36 38 39 46 52 48 52
26 29 33 36 40 42 46 50 51 53 54 55 58 60 60 61 63 65 70 74 78 83 87 89 93 98 100 93 73 57 43 38 37 36 34 35 38 42 43 50 46 47 47
33 36 38 39 42 44 49 51 53 55 55 58 61 62 62 63 66 70 74 77 82 86 88 91 97 98 89 70 56 43 37 37 36 35 36 39 43 45 45 47 44 44 39
37 39 40 42 44 47 51 53 54 56 58 60 63 63 64 66 69 73 76 81 85 86 91 98 97 85 68 56 44 38 34 36 36 37 40 42 47 46 47 45 46 38 39
42 44 44 46 48 51 53 54 56 58 59 62 63 63 65 68 71 76 80 82 86 91 97 96 84 68 57 45 39 35 34 35 36 38 41 44 48 46 48 46 41 38 41
46 48 48 49 52 55 55 57 58 59 61 62 63 64 67 70 74 78 81 84 91 96 95 83 69 58 45 39 35 32 33 35 36 38 41 45 45 44 44 44 38 39 41
49 51 51 52 56 56 57 58 59 60 62 63 64 66 69 73 77 80 82 89 94 93 82 69 59 47 38 35 33 33 35 35 36 37 40 43 43 44 42 39 36 38 43
51 52 53 54 56 57 58 59 59 61 63 63 65 69 73 76 79 81 87 93 91 79 70 61 49 38 34 32 32 33 34 36 37 39 42 39 41 44 41 34 34 38 40
53 53 53 54 56 57 58 59 60 62 63 65 69 71 76 78 79 86 91 89 78 70 63 52 42 35 33 33 33 34 35 35 37 39 38 39 40 41 37 30 32 36 38
53 53 54 55 56 57 59 59 61 62 64 68 70 74 78 79 85 90 88 77 71 65 56 45 37 33 33 33 31 32 33 35 36 37 37 39 39 36 32 28 28 33 34
52 53 53 56 58 59 59 59 62 64 65 71 73 77 79 83 89 86 78 71 66 59 48 40 35 32 30 29 30 31 33 34 35 35 36 37 35 32 28 25 27 31 31
51 54 55 58 58 58 58 61 63 65 69 73 76 77 81 86 87 76 72 66 61 50 41 36 32 28 28 29 29 30 33 34 33 35 34 35 31 29 24 23 25 28 29
55 55 57 59 58 59 61 61 66 68 72 74 76 80 84 85 77 71 66 61 52 42 35 32 30 29 28 27 28 31 33 33 34 34 33 33 28 26 23 21 22 25 26
55 57 61 59 59 61 62 64 68 70 73 76 80 81 84 78 69 66 61 54 44 36 32 32 30 27 25 26 29 30 31 33 33 33 32 31 26 22 20 18 18 20 22
50 59 59 57 62 64 63 69 70 73 76 78 80 82 78 69 65 61 54 45 38 33 31 31 27 24 25 27 28 28 30 31 32 32 30 28 25 23 23 16 15 17 19
57 55 56 59 63 67 65 69 74 76 76 78 81 77 71 64 61 54 46 38 34 32 29 26 22 22 25 26 26 27 29 30 31 30 28 26 22 21 21 18 14 14 16

GFSMW_500_spd_006.txt.gz
Wind_Speed
11 10 13 16 18 20 19 17 20 25 30 36 36 37 39 46 48 44 38 35 35 36 39 41 45 47 50 51 54 58 61 61 61 61 64 66 69 71 73 74 76 79 81
9 12 15 17 19 20 20 23 28 33 34 37 40 41 45 48 47 45 44 44 45 47 49 50 52 53 55 57 58 58 59 64 68 69 70 73 75 78 81 84 86 89 91
12 13 14 15 19 22 22 26 32 30 32 35 38 41 42 43 46 48 49 48 48 49 51 52 53 54 56 58 61 64 67 70 73 76 78 80 84 88 91 95 97 99 100
13 13 17 18 19 20 21 23 23 26 31 34 35 38 42 45 47 49 50 52 53 52 52 54 56 59 60 62 66 69 72 74 79 84 88 91 94 98 100 101 103 104 105
14 17 17 19 17 16 17 19 22 27 30 33 37 40 44 46 48 50 52 52 53 55 57 57 58 60 64 67 70 73 78 82 86 89 93 97 100 102 105 107 104 96 89
17 16 15 13 13 16 19 22 25 29 34 38 42 45 48 51 52 53 55 56 56 57 58 59 61 64 67 71 76 81 85 89 93 95 99 102 105 107 100 86 76 66 59
14 11 11 12 15 19 22 25 28 32 37 41 45 47 50 51 51 54 56 58 58 58 59 62 65 69 74 78 83 87 92 94 96 100 105 107 99 83 70 61 56 52 47
9 11 14 16 20 24 27 29 31 34 38 41 44 48 50 52 54 57 59 60 61 61 62 65 69 74 78 83 88 91 93 98 103 107 100 81 67 57 51 46 42 37 33
12 14 17 21 25 28 31 33 35 38 41 43 47 53 56 56 58 59 61 61 61 61 64 68 74 78 82 86 89 94 100 104 101 85 69 56 47 44 43 41 38 39 34
16 19 22 26 29 32 35 36 38 42 44 47 48 54 57 59 59 61 62 60 61 64 68 72 77 81 85 90 95 101 103 88 72 62 50 42 40 38 37 38 39 41 42
21 24 28 30 34 37 39 40 42 46 49 52 54 57 59 61 61 62 62 63 65 68 73 77 82 85 88 95 102 100 81 67 59 50 43 39 38 36 37 40 43 44 45
28 31 34 37 40 43 45 45 47 50 53 56 58 60 62 62 62 64 64 66 70 74 78 81 84 88 95 100 90 75 66 56 46 42 40 38 38 39 42 44 47 48 47
33 36 39 43 46 49 50 51 52 54 56 58 60 62 63 62 65 65 67 70 74 78 81 84 87 95 98 83 73 66 56 45 42 39 38 39 38 40 43 45 48 48 48
39 42 45 48 51 53 54 55 56 57 58 59 61 63 63 64 66 67 69 74 77 80 83 86 94 95 81 72 65 56 45 41 38 35 36 37 37 40 43 46 47 45 46
43 45 48 51 54 55 56 57 58 58 59 60 63 63 64 65 66 68 73 76 79 83 84 91 95 81 73 66 58 46 40 37 35 36 37 38 39 41 44 45 45 46 44
47 49 51 54 57 57 58 58 57 58 60 62 63 64 64 64 67 70 76 78 83 85 88 95 83 75 67 59 48 41 38 36 35 36 36 37 40 42 42 43 43 43 41
51 51 53 55 57 58 58 56 57 58 60 62 64 63 63 66 68 74 77 82 85 87 93 84 76 70 61 51 42 38 36 36 35 35 36 38 40 40 39 40 43 39 36
52 52 54 56 57 56 54 55 57 59 62 62 62 63 65 67 71 76 79 85 86 91 87 77 71 64 54 45 39 36 35 33 33 35 37 38 38 38 39 40 37 34 33
53 53 54 55 53 53 54 56 60 61 63 61 62 63 65 68 72 76 82 86 89 89 80 73 66 56 46 40 37 34 31 32 32 35 36 36 37 38 38 37 34 30 30
52 52 51 51 52 54 55 56 57 60 61 62 64 65 69 72 75 79 85 88 89 82 74 68 58 48 41 36 32 31 31 30 31 34 34 34 37 36 36 33 30 27 27
47 47 49 51 54 55 55 56 58 61 61 64 67 69 72 74 80 85 86 87 84 76 69 60 49 41 36 33 32 31 30 30 31 31 33 35 34 34 33 31 28 24 24
45 49 52 55 54 55 59 57 60 61 64 67 71 70 75 76 85 86 85 83 76 68 60 50 42 36 35 33 31 29 29 30 30 30 32 33 31 31 30 27 24 21 23
51 53 54 53 54 56 57 56 61 62 66 70 72 73 77 82 87 86 83 77 68 60 51 42 37 35 33 29 27 28 29 29 29 30 31 31 29 28 27 24 22 20 22
56 53 53 57 61 59 55 59 61 64 68 70 73 77 80 85 86 84 78 70 60 52 43 37 34 33 29 25 26 28 28 28 29 29 31 29 27 26 24 22 20 17 18
52 52 58 56 57 62 62 56 62 70 72 72 76 78 79 82 82 78 69 59 53 44 37 33 32 29 25 24 27 29 29 27 27 29 30 27 26 24 23 21 21 17 16
53 56 56 58 58 54 69 59 64 71 73 76 76 74 78 77 73 67 60 54 47 39 34 31 28 24 24 26 28 28 27 26 26 27 28 26 24 23 22 21 20 19 16

GFSMW_500_spd_009.txt.gz
Wind_Speed
11 10 11 12 14 16 18 19 18 21 25 30 31 32 31 32 36 39 42 42 41 42 44 47 50 52 52 55 55 55 55 57 58 61 61 60 63 66 69 72 74 75 77
11 11 13 15 16 18 21 22 23 25 28 26 26 28 30 32 34 36 38 43 46 49 50 50 51 53 54 55 56 58 58 58 59 63 67 65 64 68 74 77 80 84 86
14 16 17 17 18 21 23 25 24 25 22 22 25 28 31 35 38 40 42 44 46 48 51 53 54 54 55 55 56 56 57 59 61 64 68 73 77 80 82 84 87 90 93
18 20 21 20 21 24 23 20 17 18 21 24 28 31 35 38 41 45 47 50 51 52 54 56 57 55 54 55 56 57 60 65 69 73 77 81 84 88 92 95 97 98 102
22 23 22 23 24 19 16 16 18 21 24 27 30 33 37 41 44 46 48 51 53 55 57 58 58 57 56 58 59 62 67 72 76 80 83 86 90 94 98 99 104 104 96
24 25 24 24 19 15 16 19 21 23 27 32 35 38 42 46 49 50 51 54 57 58 58 59 59 59 60 62 66 70 73 78 82 84 88 93 98 102 102 96 86 76 63
25 25 22 17 15 16 20 23 25 28 32 36 39 42 46 50 53 53 56 58 59 60 61 62 62 63 64 68 72 77 80 84 87 92 98 102 98 92 83 74 65 54 44
22 17 17 17 18 22 25 28 31 34 36 40 42 45 49 52 55 55 58 60 63 62 62 64 64 65 69 73 78 81 84 88 95 98 98 91 84 75 66 55 48 43 39
15 16 18 21 24 28 32 35 38 40 42 45 48 50 51 54 57 58 60 62 63 63 65 66 66 69 73 78 81 83 88 96 99 90 84 79 72 60 51 46 44 43 38
19 22 25 27 32 35 38 41 44 45 48 51 53 56 57 58 58 59 62 64 65 65 67 67 70 74 77 80 81 88 97 99 88 81 76 68 57 48 43 42 42 43 44
24 27 30 34 37 40 44 47 49 51 54 56 57 59 61 59 61 61 64 65 65 67 66 69 73 77 79 81 88 96 97 87 81 74 65 53 46 43 40 40 43 43 45
30 32 34 38 42 45 48 50 53 55 57 59 60 62 61 61 62 63 65 66 66 66 68 71 76 77 80 86 91 98 91 79 72 62 51 45 42 39 39 41 42 44 46
34 37 40 43 46 49 51 54 56 57 60 61 63 63 60 61 62 65 66 66 66 68 70 73 78 80 85 92 98 92 81 71 61 51 44 40 38 37 40 42 43 45 47
39 42 45 47 50 52 55 57 58 58 61 62 62 61 59 62 64 66 66 66 67 70 72 77 82 85 89 98 95 82 72 62 51 45 41 38 37 38 40 42 44 47 45
45 48 51 52 54 56 57 58 58 60 61 60 59 59 60 62 65 66 65 67 70 72 75 78 85 89 95 96 87 75 64 54 46 42 40 39 38 39 41 44 45 44 42
51 52 53 55 55 56 56 57 57 58 57 58 58 59 61 63 68 65 67 70 73 75 77 82 91 94 98 88 80 68 57 48 43 40 39 37 38 39 41 41 41 43 42
54 55 54 53 53 54 54 55 55 54 55 56 59 61 61 64 66 65 68 72 78 77 80 85 93 95 97 81 74 61 50 44 41 37 35 36 39 40 41 40 42 41 40
53 52 53 52 51 52 51 51 52 53 56 57 56 59 64 63 64 66 71 75 76 79 83 86 93 95 89 74 64 52 44 39 37 36 36 37 39 39 39 40 39 39 38
53 51 50 49 48 47 49 51 55 57 57 56 59 63 65 67 66 71 76 79 77 79 82 86 93 84 77 64 55 45 40 37 36 36 35 37 39 37 38 38 37 37 34
48 47 47 46 46 49 52 56 57 55 56 58 65 71 74 72 70 72 78 79 81 86 80 82 87 76 69 57 48 42 39 36 34 35 36 34 35 37 38 36 34 33 31
44 43 44 47 51 54 55 53 54 59 59 64 64 67 79 80 78 76 76 75 78 78 82 80 76 67 59 50 43 40 37 34 33 34 35 34 34 36 35 34 31 29 27
44 45 48 51 53 54 53 53 59 58 61 71 69 72 83 86 81 74 74 73 77 79 82 75 66 59 52 45 42 39 35 33 33 33 32 32 33 34 32 31 30 28 25
48 50 52 52 52 50 53 56 54 53 57 74 78 77 81 79 73 76 79 79 78 77 72 65 57 52 47 40 37 36 32 32 32 33 31 31 32 32 29 27 27 26 24
51 50 51 52 54 56 57 58 59 64 69 71 79 82 76 74 75 72 72 75 75 67 61 55 50 46 42 38 35 31 32 33 33 31 29 30 31 30 27 25 25 23 22
51 52 53 55 57 58 60 61 60 67 73 80 79 76 76 74 68 69 74 68 62 56 53 50 45 40 37 34 33 32 32 32 31 30 29 29 29 28 25 23 22 22 21
55 56 57 59 58 60 60 59 64 72 72 75 76 80 73 71 71 68 63 57 53 53 50 47 41 37 35 32 32 33 33 34 32 29 28 27 27 27 26 23 22 21 20

GFSMW_500_spd_012.txt.gz
Wind_Speed
5 6 7 11 13 16 16 18 18 19 21 21 24 19 19 21 26 30 33 36 38 39 42 45 48 50 51 53 55 56 56 52 50 50 51 53 54 54 58 60 64 68 71
4 6 10 13 16 16 19 22 22 24 24 21 17 19 21 25 29 32 35 38 41 44 46 47 49 51 53 54 56 57 56 52 52 54 54 56 58 62 65 69 72 75 78
11 12 15 19 21 20 23 26 24 20 16 17 20 23 27 31 34 35 37 40 42 45 48 50 52 54 55 56 57 57 55 55 55 58 62 65 68 72 77 81 85 88 89
18 18 20 23 23 23 26 27 16 16 18 20 24 28 32 35 38 41 43 46 49 51 53 54 57 59 60 59 59 57 56 57 61 64 68 73 77 82 84 87 89 93 96
24 24 24 25 25 27 27 17 16 18 21 25 29 33 37 41 44 47 49 51 53 54 56 57 59 60 60 60 60 58 59 62 66 70 74 77 81 86 91 93 95 92 86
29 31 31 28 29 26 19 18 20 23 26 30 34 38 41 46 49 51 53 55 56 56 57 58 60 61 60 61 59 60 64 68 71 74 79 85 91 96 98 92 85 81 75
33 34 29 26 21 17 19 22 25 29 32 35 39 43 46 49 52 55 57 60 61 61 60 60 62 63 62 59 61 64 69 72 73 78 87 95 96 96 91 82 77 71 59
28 25 21 17 18 21 24 28 32 35 37 42 45 49 51 54 56 57 59 60 60 62 61 62 64 63 60 60 64 68 72 75 81 90 96 99 97 89 79 73 69 58 46
17 15 17 20 22 26 30 34 38 41 43 47 50 53 56 58 59 60 61 60 58 59 61 64 65 63 62 66 68 72 72 80 88 95 103 104 89 78 71 62 53 47 41
15 20 24 26 28 31 35 39 44 46 47 50 52 56 58 60 61 61 60 59 59 61 63 65 63 63 67 70 74 73 77 84 95 99 106 92 78 68 58 48 43 40 39
22 25 29 32 34 36 39 42 48 50 50 52 56 58 60 61 62 61 60 58 60 62 64 62 62 65 68 74 74 79 77 82 95 98 97 77 68 57 48 42 40 38 38
28 31 32 35 39 42 45 46 51 54 54 56 57 59 60 60 60 60 59 59 61 63 62 64 66 67 70 75 75 79 81 89 97 92 85 70 57 47 42 42 40 39 40
34 37 39 41 42 47 50 52 54 57 57 56 58 59 60 56 59 59 60 61 63 62 66 69 69 70 73 78 79 86 87 93 96 84 72 59 50 43 40 40 40 40 41
38 42 47 51 51 52 53 54 55 55 56 55 59 59 57 56 59 61 61 62 65 67 72 72 71 72 78 82 83 89 91 92 87 73 63 52 46 41 40 39 38 41 43
47 48 51 56 58 56 55 53 54 54 54 54 56 55 56 59 63 61 60 66 67 73 78 76 73 74 79 83 83 84 85 88 79 65 55 47 43 38 37 39 39 42 42
47 50 51 54 55 56 57 55 53 52 51 52 53 56 59 62 59 63 64 66 68 79 90 86 79 82 82 77 87 85 84 80 66 57 48 44 41 38 38 37 38 39 41
50 52 52 54 55 56 55 51 50 51 49 52 56 59 58 58 59 66 67 71 79 85 91 88 85 81 73 79 79 81 78 65 56 50 45 42 40 39 39 40 40 42 43
53 55 55 54 51 50 50 50 48 50 54 56 58 56 58 63 66 64 66 68 77 86 89 85 72 73 73 74 73 74 64 56 51 46 42 40 38 37 38 38 39 40 39
55 53 50 48 47 47 48 48 51 55 56 57 56 57 60 62 64 74 77 80 80 81 80 75 70 74 73 69 60 61 57 48 47 43 40 37 38 39 38 37 38 37 36
47 49 47 45 46 47 51 51 54 55 55 57 59 63 64 73 68 79 82 86 80 67 67 74 74 74 64 59 55 53 50 45 43 40 36 35 37 37 37 37 38 34 32
48 48 47 48 50 52 53 52 53 54 56 57 59 62 63 65 81 81 78 74 64 71 79 77 67 62 56 50 49 49 46 41 39 36 35 36 37 36 35 36 36 33 30
47 48 49 50 51 51 52 54 55 58 59 60 61 63 64 69 82 83 79 66 78 80 76 67 59 51 48 47 47 46 42 37 34 34 36 36 35 34 34 35 35 32 29
48 48 49 49 49 53 55 57 58 60 59 63 64 65 73 79 83 80 75 79 67 64 65 59 51 48 47 44 41 40 37 34 33 33 35 35 34 33 33 33 31 30 28
51 48 47 50 52 54 57 59 61 63 60 62 61 68 74 78 76 77 76 70 66 61 55 52 50 47 47 46 42 37 34 31 32 35 35 34 32 30 30 30 30 27 25
47 49 51 54 57 60 62 62 62 60 58 67 70 71 70 73 75 77 59 60 61 58 53 49 47 46 46 45 42 37 34 30 30 32 31 30 28 28 28 28 28 26 23
50 54 57 60 63 64 63 64 61 58 58 62 62 67 72 75 68 59 56 58 57 52 51 49 48 46 44 42 38 36 34 32 30 29 29 28 28 27 26 25 25 25 23

GFSMW_500_spd_015.txt.gz
Wind_Speed
3 5 3 5 8 8 14 16 16 17 17 16 14 11 14 17 21 26 29 31 34 37 40 42 44 47 48 49 50 51 52 52 53 54 51 47 48 50 52 54 57 62 65
4 7 9 8 11 14 14 17 19 18 11 8 12 14 18 22 27 31 34 37 41 43 45 47 50 52 52 52 53 54 55 56 56 53 50 49 50 53 57 60 64 69 73
4 10 14 18 19 19 17 19 23 15 11 13 16 18 22 26 30 35 38 42 44 46 49 52 55 56 58 58 58 56 56 55 53 52 54 56 59 61 64 69 74 78 83
5 11 17 23 27 28 23 20 17 18 16 20 23 27 30 33 36 39 42 45 48 51 54 56 58 59 59 58 57 57 57 53 52 56 60 63 68 71 73 78 81 85 92
18 17 19 25 29 29 25 20 11 14 18 23 28 32 36 39 42 45 49 52 54 55 57 59 60 60 57 55 56 58 54 53 56 60 64 67 70 73 77 82 89 94 107
23 23 24 24 26 25 20 14 15 19 24 29 32 35 38 42 46 50 53 55 56 58 60 60 59 57 55 55 58 55 53 55 58 65 65 68 75 81 84 88 95 97 95
22 21 21 19 18 17 17 19 21 24 28 33 37 41 44 48 51 54 55 56 57 60 60 58 57 55 55 58 56 55 56 59 61 64 64 71 75 79 86 93 97 100 71
19 18 15 9 10 14 19 23 26 29 32 36 40 44 47 51 53 55 57 58 59 60 58 57 56 56 58 57 55 58 62 64 64 64 69 73 79 82 92 95 100 80 64
11 9 9 12 16 20 25 28 31 33 36 40 44 48 50 52 54 57 58 59 59 57 59 57 58 60 60 58 60 65 68 69 69 70 75 80 81 86 92 98 79 66 55
12 15 18 20 22 26 30 34 38 39 41 43 47 50 52 53 55 56 56 58 60 55 58 60 63 61 62 64 68 72 76 80 77 78 81 81 87 87 90 78 65 57 46
16 20 23 26 28 29 32 38 43 45 46 47 49 51 53 54 55 57 57 59 58 58 59 59 60 63 68 70 73 77 88 90 89 88 87 79 83 82 72 58 54 46 42
22 26 30 32 33 35 36 40 47 50 51 49 49 51 53 55 57 56 57 56 57 60 60 59 62 66 67 71 73 83 87 93 93 88 83 81 83 76 58 48 46 42 40
30 33 36 38 41 42 44 45 45 50 51 53 52 53 55 55 55 53 54 57 59 58 61 63 65 68 73 74 78 79 84 83 82 81 82 77 67 57 45 42 42 39 39
37 40 43 45 47 45 47 43 48 53 54 55 55 52 54 54 52 54 57 60 56 60 64 67 71 77 80 79 83 84 79 77 83 83 79 69 58 48 38 40 39 39 39
42 47 48 48 48 52 51 51 50 53 55 53 52 53 54 54 56 59 60 60 61 66 67 70 77 81 82 84 79 74 78 83 80 69 63 56 49 42 38 37 37 37 38
43 46 49 51 50 49 46 50 49 52 51 50 50 54 56 58 58 56 58 62 66 71 78 86 89 91 89 78 76 72 81 71 63 55 55 50 44 40 38 36 36 37 35
45 46 47 49 51 53 47 48 48 47 47 50 54 56 56 56 55 58 61 66 72 71 80 85 87 84 83 78 72 73 67 60 53 52 49 42 40 37 35 35 36 36 36
47 49 51 51 49 46 46 46 47 48 51 53 54 54 55 56 61 61 66 63 71 77 78 80 84 77 70 74 73 67 60 52 50 49 43 39 36 34 34 35 36 35 36
50 51 49 45 41 39 42 46 49 51 52 53 54 56 59 60 59 68 67 66 71 77 82 86 81 74 80 71 63 57 51 48 47 42 38 34 32 34 35 36 35 34 36
46 45 43 43 46 48 50 50 52 51 50 54 56 58 60 60 63 70 67 74 70 72 83 74 76 76 63 58 53 50 49 46 44 38 35 32 32 33 34 34 33 33 34
39 44 45 46 48 49 51 51 51 52 53 56 59 61 62 62 62 67 76 81 78 76 71 75 61 59 55 52 49 48 46 43 39 35 32 31 32 34 34 33 32 32 32
44 44 45 48 48 47 46 48 51 53 57 60 62 63 63 64 63 72 77 73 70 71 72 56 52 52 50 47 46 46 45 42 38 33 32 32 32 32 32 31 31 32 31
46 47 48 46 45 47 48 51 54 57 61 62 63 62 62 61 61 66 68 69 73 68 52 52 51 50 49 45 44 45 43 40 36 32 31 30 30 30 30 30 30 30 31
51 51 48 47 47 49 53 56 60 62 61 61 60 61 62 62 62 64 68 69 55 54 53 53 53 53 51 48 46 42 40 39 35 31 29 29 28 29 29 28 28 27 27
50 48 48 49 52 56 59 62 61 59 58 60 62 64 65 64 63 66 62 55 55 56 57 57 56 56 53 50 47 44 39 37 33 29 27 26 26 27 27 27 26 25 24
47 48 51 55 58 61 62 60 58 60 63 65 67 67 67 66 63 59 55 57 57 57 56 57 58 58 56 53 48 43 38 36 32 27 24 25 26 28 27 26 26 24 23

GFSMW_500_spd_018.txt.gz
Wind_Speed
5 3 3 6 9 10 13 13 11 11 11 10 7 6 7 10 14 19 23 27 30 33 36 39 42 44 47 48 50 50 50 49 49 48 50 48 44 44 47 50 52 55 58
1 4 4 7 12 12 13 13 12 11 5 6 8 11 13 17 22 25 29 32 34 38 42 45 48 49 50 52 53 53 51 50 49 50 50 44 42 45 48 52 54 56 59
4 1 2 6 10 12 13 14 13 12 4 7 11 15 18 23 27 31 34 37 40 44 47 50 51 54 54 56 57 54 52 51 51 52 47 47 48 51 55 56 57 60 63
8 5 4 6 12 15 12 12 13 13 9 11 15 19 24 28 31 35 39 42 45 47 49 53 55 56 57 57 54 53 53 53 55 51 49 51 55 58 61 65 67 70 73
5 6 7 11 13 13 10 10 10 12 13 18 22 25 29 33 36 39 42 46 48 51 53 56 57 56 56 54 53 53 54 55 53 53 54 57 60 64 69 73 75 79 81
13 13 13 13 12 10 6 7 6 12 16 21 27 32 36 39 42 46 48 51 54 56 57 57 57 57 55 55 56 56 58 56 55 57 61 63 64 71 71 72 77 82 86
11 12 12 12 8 9 10 11 13 18 22 27 32 36 40 43 48 51 53 55 57 58 59 57 58 59 55 58 59 60 59 59 62 63 64 66 70 76 72 72 75 79 85
12 11 7 4 6 10 16 19 22 24 28 33 36 39 42 47 51 53 54 56 58 58 58 59 61 58 57 60 62 61 61 63 65 66 68 70 76 77 76 79 80 79 84
4 5 2 7 11 15 18 22 27 29 33 37 40 43 46 51 52 53 54 56 56 57 61 59 60 59 62 62 60 63 66 67 68 70 72 74 79 84 78 81 86 86 77
9 9 9 12 16 19 24 27 30 34 38 41 43 43 49 50 51 53 55 56 58 58 59 58 59 61 63 62 65 68 70 73 74 79 82 85 88 89 79 82 72 74 71
14 14 15 17 21 25 29 33 37 41 42 42 42 44 45 48 52 55 56 52 59 57 56 59 62 62 62 66 67 70 74 83 85 87 90 90 81 79 74 71 68 67 65
17 18 19 23 27 29 33 37 39 39 43 42 44 45 45 49 54 57 55 52 52 56 59 61 61 61 65 70 72 74 81 85 84 84 81 72 75 78 71 66 65 64 58
20 22 28 31 32 34 35 33 36 38 39 42 44 47 47 51 57 53 49 51 55 59 62 62 63 65 70 74 76 82 85 82 84 76 75 76 76 68 63 64 63 56 51
24 31 34 33 36 39 42 43 45 42 38 42 48 47 52 54 52 51 54 56 58 60 62 65 68 71 71 73 79 84 82 84 78 75 78 76 65 60 62 61 56 49 45
28 33 35 37 41 45 47 47 43 42 42 46 47 49 51 52 54 55 56 56 60 62 65 69 73 77 75 76 81 81 78 79 75 78 72 64 60 60 59 54 48 45 41
34 38 42 46 49 49 49 44 43 41 45 46 48 51 52 54 55 55 56 58 61 66 68 72 75 81 77 77 78 76 74 76 75 64 60 59 58 58 52 47 42 40 39
39 42 43 43 46 48 48 46 44 47 49 50 50 51 52 53 53 56 58 63 65 67 69 71 78 79 85 84 75 72 73 67 61 56 55 56 55 50 45 41 38 39 37
42 44 46 47 49 47 46 47 48 48 48 48 49 50 50 53 56 59 64 68 61 71 74 76 78 83 79 72 73 69 61 53 52 53 53 54 51 45 40 37 37 38 36
44 46 48 50 48 45 47 47 47 48 49 49 48 49 52 56 61 66 70 64 68 72 79 76 79 74 71 74 62 52 51 52 49 49 49 49 46 40 38 36 37 37 35
46 48 50 49 48 49 49 50 50 50 49 49 51 53 54 62 59 61 69 68 70 76 77 78 77 71 72 57 53 51 50 52 50 48 46 45 42 37 36 35 35 33 32
46 46 45 48 49 49 51 51 50 49 49 50 52 57 59 64 62 63 66 69 70 71 74 71 70 65 54 52 53 52 51 52 51 49 45 43 38 35 34 32 33 32 31
46 46 47 49 49 51 51 49 48 49 50 54 58 59 61 61 61 63 66 67 69 70 65 67 61 54 55 55 53 51 53 52 49 48 44 42 36 33 32 30 30 29 30
47 48 50 52 52 52 50 48 49 52 55 58 59 59 58 59 62 64 67 71 69 63 61 54 53 53 53 54 53 53 54 53 47 45 43 39 34 31 29 27 28 28 28
49 51 53 53 52 49 48 50 54 57 59 60 59 59 60 62 66 71 72 70 66 62 57 53 53 53 54 54 55 56 56 53 47 43 41 38 33 30 28 27 28 27 27
51 53 53 50 47 49 52 56 59 61 63 61 60 62 65 69 72 73 71 67 61 58 55 54 57 57 54 55 57 58 57 54 48 42 39 38 34 28 28 27 27 27 26
55 53 50 48 50 54 57 60 63 64 62 62 65 68 71 74 73 71 68 64 60 57 55 57 59 57 58 59 60 61 59 54 48 41 37 37 34 30 28 27 26 26 25

GFSMW_500_spd_021.txt.gz
Wind_Speed
5 5 8 9 8 7 7 5 3 2 4 1 1 2 2 5 8 13 18 22 25 28 32 35 39 42 44 46 47 48 49 48 46 45 44 44 46 47 42 43 46 49 52
4 4 5 5 5 6 6 4 2 2 2 3 4 4 6 10 14 20 23 27 31 34 37 40 43 45 48 49 51 51 50 48 46 46 47 48 50 47 46 48 50 53 54
4 2 1 1 3 4 4 4 3 3 4 6 7 9 11 17 22 26 30 33 37 40 43 46 48 49 50 51 50 48 51 49 49 51 52 53 51 50 51 53 55 56 58
6 5 3 2 7 7 7 6 5 7 7 9 10 15 20 23 28 33 36 38 40 44 47 50 51 51 51 50 51 52 53 52 54 56 56 57 56 57 59 62 64 65 68
11 8 6 9 11 9 8 9 7 7 9 11 14 21 23 28 33 38 39 41 44 48 51 53 53 53 51 53 51 55 56 56 58 60 59 59 62 65 65 64 66 70 71
9 12 12 10 12 10 9 7 8 10 13 16 20 25 29 34 38 41 42 44 49 53 52 51 51 48 50 58 57 57 57 60 62 62 61 64 67 69 71 71 72 74 78
8 10 11 13 10 7 8 10 13 15 16 19 24 29 33 37 39 44 45 47 54 54 51 49 52 51 54 61 60 59 62 64 65 65 67 68 70 73 77 80 81 75 70
12 10 10 11 11 9 10 15 16 18 22 26 31 35 38 42 43 46 48 52 56 53 53 50 51 54 62 62 61 64 65 65 66 69 73 76 78 82 82 79 76 72 70
8 4 5 6 9 10 14 18 19 22 27 32 36 40 42 40 43 48 53 55 54 53 54 57 53 56 60 63 65 66 66 69 72 74 77 78 80 81 79 76 72 70 72
8 7 7 10 12 13 16 21 25 30 34 37 41 40 40 42 48 50 52 51 51 53 56 57 57 59 63 64 65 66 70 73 77 79 84 84 85 85 75 71 74 78 84
12 12 14 15 16 18 21 25 29 35 38 39 40 42 43 43 45 51 53 52 54 58 58 57 60 63 63 66 68 71 73 75 78 81 83 85 85 76 72 76 80 82 78
15 17 18 19 20 24 27 31 35 36 39 39 41 41 42 46 51 52 53 53 59 57 58 60 62 61 64 69 73 76 78 80 81 81 83 85 79 72 76 78 73 70 73
18 21 22 22 27 30 32 32 34 34 35 39 38 41 44 51 52 52 53 58 56 58 58 59 61 65 67 72 76 76 78 83 83 85 82 76 76 78 72 67 66 68 67
19 22 23 28 30 31 33 35 37 39 39 43 43 45 51 52 48 52 57 56 56 57 58 61 65 69 73 76 77 80 81 84 86 85 79 78 74 65 61 62 62 62 59
23 25 28 29 30 33 35 36 38 40 43 45 46 50 51 51 51 53 56 56 56 57 60 64 70 73 73 76 81 80 86 88 85 80 77 67 59 55 57 58 58 58 55
28 30 30 32 35 37 40 43 46 46 46 46 47 50 51 52 54 56 56 55 57 57 62 66 73 71 78 79 80 85 87 79 79 77 61 54 55 56 57 57 55 53 48
31 32 34 36 38 41 45 47 47 46 46 49 52 52 53 55 54 52 53 55 63 63 69 68 70 76 82 80 82 83 83 77 65 57 55 53 56 57 57 55 53 48 46
34 35 37 39 42 45 47 47 47 47 50 52 53 54 51 51 53 54 56 60 57 59 75 67 72 76 77 78 80 77 75 61 58 56 53 54 56 56 55 52 49 45 43
35 37 40 43 46 47 47 46 47 50 51 53 53 49 49 51 52 56 55 69 62 72 69 70 72 76 77 78 72 72 63 58 57 53 53 55 56 54 52 49 45 42 41
37 40 44 47 49 49 49 49 50 52 54 54 51 48 50 54 58 59 61 65 65 65 67 69 72 75 75 72 67 61 58 56 54 53 54 55 55 53 49 45 42 39 38
40 43 46 48 48 47 49 51 53 55 55 53 49 50 54 57 61 62 63 64 65 67 68 70 72 75 71 65 59 57 55 55 53 53 55 56 55 52 46 43 40 37 36
44 45 46 46 47 48 50 52 54 54 51 48 50 54 57 60 62 62 62 64 66 68 70 72 74 73 65 60 59 57 57 56 54 55 56 56 52 50 44 41 38 35 35
44 46 47 49 49 50 52 53 52 50 49 51 54 57 60 62 62 63 65 67 70 73 76 77 73 66 60 58 57 57 58 56 55 56 57 55 50 48 43 39 36 34 35
46 48 49 49 51 53 54 54 53 53 53 55 58 61 63 63 65 66 69 73 76 78 78 75 69 62 57 56 57 58 57 59 58 58 58 55 47 47 42 38 35 34 34
49 50 50 51 53 55 55 55 55 55 57 60 63 65 65 66 68 72 75 78 79 78 76 70 64 59 56 57 60 60 60 60 60 61 59 54 46 45 41 37 34 34 33
52 52 53 54 55 56 55 55 57 59 62 65 67 67 68 71 74 76 78 79 77 75 70 64 60 58 60 59 60 62 63 64 65 65 59 51 45 44 40 36 33 33 31

GFSMW_500_spd_024.txt.gz
Wind_Speed
8 7 8 8 8 8 8 6 5 4 4 4 5 7 7 7 7 10 12 16 19 23 27 31 34 38 42 44 45 47 48 46 47 45 46 45 45 46 47 49 50 50 49
11 10 9 8 8 7 8 8 10 8 7 8 9 8 9 10 12 15 18 20 24 28 31 34 37 41 43 44 45 46 45 46 47 47 50 50 50 51 53 53 53 54 56
8 9 10 9 7 5 5 8 10 11 11 12 13 12 13 15 17 21 23 25 29 33 36 37 41 42 42 42 43 44 42 46 53 52 51 52 53 55 56 56 58 60 63
9 8 7 9 10 7 8 10 11 13 13 15 17 16 17 18 22 25 28 33 36 38 41 44 46 45 43 40 46 48 48 52 56 56 55 57 59 59 60 62 64 68 71
13 10 9 10 10 13 12 13 14 14 14 13 14 17 19 20 26 30 34 38 40 42 44 46 48 48 45 46 46 45 53 59 61 59 61 62 63 65 68 70 73 76 77
18 19 19 17 16 17 17 15 14 12 11 13 14 16 21 25 29 33 37 41 43 43 45 46 49 48 49 46 55 55 58 60 60 62 63 66 68 70 72 75 77 78 80
16 22 23 22 20 17 15 14 15 13 14 22 16 19 24 29 33 37 37 40 41 44 50 50 50 52 55 58 58 58 58 60 63 65 67 70 73 76 79 80 82 84 83
11 15 19 22 19 19 16 14 14 17 18 23 21 25 28 33 36 37 38 39 45 47 51 49 54 53 58 61 60 60 62 63 66 69 72 74 77 81 82 84 86 84 84
16 12 12 15 15 15 13 15 17 18 21 24 26 29 34 35 37 37 39 48 52 55 50 56 57 57 63 61 63 64 64 67 70 74 77 80 83 83 85 87 89 87 81
14 12 11 11 10 11 14 17 21 23 27 30 31 32 36 37 38 39 43 48 53 57 58 62 61 63 63 64 65 64 67 70 73 75 78 81 83 86 87 92 88 80 81
18 16 16 14 15 16 17 22 26 27 29 31 32 34 36 37 38 42 44 52 56 59 64 63 64 66 65 65 64 66 70 74 76 77 78 83 84 86 89 85 83 82 75
21 20 19 19 21 21 24 28 31 31 31 32 35 36 36 39 40 43 49 55 61 65 66 66 66 64 62 62 64 67 71 77 77 80 86 83 84 86 83 83 78 66 63
21 22 19 21 23 27 29 32 33 31 32 35 36 39 40 41 43 50 52 59 61 62 63 63 62 60 61 68 67 70 74 77 80 86 85 87 86 84 80 69 62 59 62
18 20 22 24 27 30 33 34 33 34 35 37 39 38 40 45 48 50 55 58 60 61 60 60 59 59 66 68 73 75 77 82 84 83 85 86 80 73 66 61 59 61 63
21 24 25 27 30 33 34 33 33 36 37 37 39 39 43 44 49 53 56 59 58 56 57 60 63 59 56 63 73 77 80 78 79 83 83 80 72 63 63 59 59 61 62
25 27 29 31 32 33 32 33 37 39 42 45 45 43 46 49 52 56 59 56 56 57 57 64 65 68 74 74 77 81 78 77 79 81 79 70 62 61 59 57 58 59 60
27 30 32 33 33 32 34 37 40 43 46 47 46 46 48 51 55 58 53 55 58 58 59 61 54 73 78 76 75 77 76 77 79 78 67 61 59 58 57 56 57 59 58
30 30 31 31 32 35 38 41 44 47 48 48 49 50 52 55 56 55 54 54 55 55 59 68 68 71 72 74 75 76 77 77 77 68 62 60 60 58 56 57 57 57 56
30 31 32 33 35 38 41 44 46 47 48 49 50 52 54 56 55 52 51 53 53 51 68 68 70 70 72 75 76 78 78 77 71 61 62 59 60 59 55 55 56 56 54
30 32 34 36 39 42 44 45 46 48 49 51 52 54 55 54 52 51 53 56 58 61 65 67 70 72 72 76 77 78 78 73 64 63 59 57 58 56 55 54 55 55 52
31 33 35 38 41 42 44 45 48 50 51 53 54 54 53 52 52 54 57 61 64 66 67 68 71 74 76 77 78 77 74 65 60 57 56 58 57 57 56 55 54 53 50
31 34 37 40 42 44 46 48 50 51 52 53 53 52 52 53 55 57 61 65 67 69 70 71 73 76 79 79 75 72 66 61 57 57 57 58 58 57 56 55 55 51 47
36 37 40 42 45 47 49 51 52 52 52 53 52 52 52 54 58 61 66 69 71 71 72 75 77 78 79 76 70 65 61 59 58 58 58 58 58 58 57 55 54 50 45
39 41 43 46 48 50 52 53 53 54 55 55 53 53 56 59 62 66 71 72 72 74 76 79 82 81 79 70 64 62 60 59 59 57 58 58 60 61 59 55 53 50 43
42 44 47 49 51 53 55 55 56 57 55 53 54 56 58 62 67 71 72 73 76 79 82 82 83 81 75 62 59 62 63 62 61 62 61 61 62 60 58 53 50 48 43
47 49 51 53 54 56 56 57 58 56 54 54 56 60 64 69 71 72 74 77 80 82 81 81 78 73 69 65 64 63 63 64 65 66 64 63 60 58 54 46 46 45 42

GFSMW_500_spd_027.txt.gz
Wind_Speed
9 11 12 12 11 11 12 12 12 11 10 10 11 13 12 13 13 10 10 13 16 18 21 25 28 30 34 38 42 46 46 45 41 43 46 47 46 48 49 49 49 50 51
9 10 11 12 11 10 11 12 14 12 10 10 14 14 14 13 12 14 15 17 21 23 27 30 31 34 37 41 43 45 46 45 46 48 51 51 52 54 51 52 52 54 56
10 12 12 10 8 6 5 7 9 10 10 10 11 15 15 15 14 16 18 21 25 29 31 32 35 38 42 42 46 49 49 48 52 55 56 56 56 56 55 56 58 60 62
10 10 11 12 10 8 6 8 11 14 14 16 16 17 16 16 18 19 23 26 30 31 33 36 37 41 44 47 49 49 50 50 56 57 55 56 57 58 58 59 63 65 68
14 14 14 14 13 15 13 11 11 16 17 17 18 19 20 21 23 22 26 29 32 35 38 39 41 44 47 52 48 51 56 59 63 61 60 59 59 60 62 65 68 71 75
21 20 21 21 19 19 17 17 16 17 17 16 18 20 24 24 24 25 27 30 32 35 38 39 42 49 52 53 52 56 55 60 65 61 60 60 61 64 68 72 74 76 77
23 22 25 25 25 23 21 21 20 18 18 17 22 25 29 24 25 25 30 31 35 34 37 38 46 50 52 56 58 63 62 65 66 63 61 61 64 68 74 77 78 78 83
17 17 24 29 30 29 28 25 21 19 19 20 22 22 24 28 28 29 30 33 35 36 36 44 52 56 57 52 56 66 65 67 65 64 65 67 70 74 80 81 81 84 84
15 17 24 27 26 27 28 25 22 18 20 20 22 25 28 30 29 30 33 36 37 38 44 48 52 56 44 63 66 66 67 66 64 66 71 74 76 80 83 85 85 87 87
19 16 16 18 17 16 18 20 19 21 22 24 27 27 30 30 30 33 34 37 38 41 47 50 56 59 62 66 68 67 68 66 65 68 71 75 78 82 83 85 85 86 86
22 20 18 17 17 18 19 21 21 23 25 29 31 30 31 33 34 36 40 38 38 45 53 56 58 63 65 64 64 64 64 68 69 71 78 79 82 85 83 84 83 84 80
23 22 20 20 23 21 24 25 26 27 29 30 32 34 34 37 40 42 40 42 43 49 57 57 61 63 64 59 61 65 67 68 71 70 78 82 85 82 83 82 82 79 69
23 26 30 27 25 24 26 26 28 30 32 35 36 36 38 40 41 42 44 46 50 53 58 58 59 61 60 61 61 63 66 68 70 76 83 78 80 81 81 81 78 69 62
21 23 23 23 25 26 27 28 31 34 36 37 37 37 39 39 40 41 41 47 51 54 55 58 60 56 59 60 61 63 68 75 80 84 82 81 81 80 80 76 67 61 60
21 22 23 25 26 28 30 31 33 35 36 36 37 37 38 39 40 42 46 49 53 56 58 58 55 56 53 61 65 68 72 75 79 80 80 80 81 80 79 67 60 60 61
23 25 26 27 28 29 30 32 34 33 33 34 36 39 42 44 46 48 50 53 55 57 57 54 56 53 61 66 66 72 77 79 79 78 80 81 81 80 73 61 58 58 59
25 26 28 29 30 30 31 31 31 32 34 36 39 42 45 47 50 51 53 55 55 54 54 51 49 58 59 65 70 75 77 77 77 80 82 82 80 75 63 60 57 56 57
26 28 29 30 30 31 30 30 32 34 37 40 42 45 47 50 51 52 53 54 53 50 50 55 53 61 65 69 72 75 76 78 79 81 82 82 76 66 62 58 54 56 57
25 25 26 28 28 29 30 32 35 37 40 42 44 47 50 52 53 53 55 56 54 54 55 57 61 64 68 72 75 76 77 79 81 83 82 78 67 62 60 55 55 56 56
23 25 27 27 27 29 32 35 38 41 43 45 47 50 52 53 54 55 56 55 54 55 57 60 64 68 72 74 75 77 79 82 84 83 78 68 60 59 58 55 56 55 56
24 24 25 27 30 33 36 38 41 43 45 48 50 52 54 55 56 57 56 55 55 58 61 63 67 72 74 75 77 80 83 84 84 79 67 60 58 57 56 54 54 55 56
22 25 28 31 34 37 39 41 43 45 47 50 52 54 55 56 57 56 55 56 58 60 63 67 71 73 76 78 80 83 84 84 79 67 59 58 58 57 56 55 54 57 57
25 28 32 36 38 40 42 44 46 47 49 52 54 56 57 57 56 55 56 59 61 65 70 73 75 77 79 82 83 83 83 77 70 63 60 61 60 59 57 58 58 59 58
30 34 37 40 42 43 45 46 48 50 52 55 58 59 60 59 58 58 60 65 69 73 76 78 80 82 82 83 84 82 77 72 71 68 67 67 65 62 60 59 59 59 56
37 40 42 44 45 46 48 50 52 54 56 59 60 61 60 60 60 64 67 71 76 78 81 83 86 87 87 86 86 82 77 73 71 71 72 70 67 64 62 59 58 57 51
43 45 47 48 48 49 52 55 56 57 59 61 61 61 60 61 63 67 72 77 79 80 81 83 85 86 87 85 82 81 80 78 76 74 71 65 60 58 56 55 47 50 51

GFSMW_500_spd_030.txt.gz
Wind_Speed
9 11 10 7 7 5 5 7 9 9 9 10 12 16 16 17 16 19 15 15 15 14 16 21 23 27 31 33 36 37 40 44 47 49 48 43 45 52 54 52 52 52 52
9 11 13 13 12 12 12 12 11 10 8 8 11 13 16 17 17 15 16 15 15 17 23 27 30 32 32 34 34 39 42 47 45 49 51 54 57 55 57 56 56 55 54
8 11 12 12 11 9 8 8 8 10 11 10 11 13 16 17 16 18 18 17 19 22 26 29 33 33 34 36 36 40 43 47 48 49 53 52 59 63 62 60 58 56 57
8 9 11 11 11 10 10 10 9 11 13 13 14 15 19 21 22 22 20 21 23 25 28 31 32 34 36 40 39 44 48 52 52 50 54 58 60 65 65 61 57 59 62
13 13 14 15 16 15 14 13 11 13 14 16 16 18 19 21 21 25 23 24 26 28 31 33 33 34 38 41 46 48 55 60 53 50 64 64 64 63 60 59 64 64 66
14 17 19 20 18 20 19 19 18 17 17 17 16 17 18 21 23 26 26 28 28 30 31 33 36 37 42 43 49 56 56 54 49 60 68 66 64 63 59 62 62 67 71
19 19 21 22 24 25 24 24 22 21 23 22 19 19 22 25 28 31 30 33 33 31 33 34 40 36 40 44 51 58 49 53 55 70 69 64 64 63 65 68 68 74 80
19 20 19 22 26 29 29 29 28 28 26 24 21 22 25 24 29 32 34 37 35 33 34 38 38 42 46 48 50 56 44 51 72 67 64 62 64 66 68 69 71 80 86
20 21 22 23 27 30 30 29 31 29 28 24 23 24 26 28 33 36 32 31 31 32 36 38 39 43 49 45 49 42 61 69 70 66 64 62 65 66 69 72 75 85 88
26 22 21 22 26 30 31 30 28 29 34 21 25 26 30 35 39 35 31 32 33 36 41 41 46 45 39 46 48 65 69 69 64 63 66 67 67 68 73 78 82 86 85
22 25 26 24 22 21 23 23 22 22 22 22 27 30 35 38 37 34 34 38 39 40 43 42 39 42 52 60 67 66 67 63 63 62 64 68 71 72 80 82 83 84 84
25 25 26 24 26 26 25 24 24 24 26 28 32 36 36 40 41 40 39 40 41 43 45 48 51 54 59 59 61 63 61 57 58 62 67 77 77 79 85 84 84 84 85
24 26 25 26 28 27 28 28 26 26 29 33 35 37 41 41 40 41 42 43 44 45 47 48 52 54 55 58 62 60 57 60 63 67 69 75 78 84 85 85 84 85 85
24 24 26 27 28 29 30 30 29 29 31 34 37 39 39 40 41 42 42 43 43 45 48 51 54 54 56 58 60 60 60 62 67 69 73 77 81 83 84 84 84 84 82
21 23 24 25 24 27 29 30 30 32 33 35 36 38 39 39 40 40 41 45 47 49 52 55 56 57 53 59 53 60 64 67 70 74 76 79 81 82 83 84 84 84 77
20 22 25 25 26 27 28 29 31 33 34 35 35 35 37 38 39 42 45 48 50 53 55 58 57 57 56 53 52 64 66 67 71 75 78 80 81 82 84 84 83 78 68
25 24 27 28 28 28 30 31 32 33 34 34 35 36 38 40 43 46 48 50 53 55 56 57 58 58 55 57 61 65 67 70 73 77 80 81 82 83 84 83 80 69 61
30 27 27 29 32 32 31 31 32 33 33 34 36 38 41 43 46 48 50 52 54 56 57 59 59 59 59 61 64 67 69 72 76 79 81 82 83 84 83 79 73 61 57
29 27 26 27 27 27 29 30 30 31 33 36 38 41 44 46 49 50 52 54 56 58 59 61 61 60 61 64 66 68 72 76 78 81 82 83 84 82 80 72 63 57 55
27 25 23 23 26 26 26 28 30 33 35 38 41 44 47 49 51 52 54 57 59 60 61 62 61 61 62 64 70 74 77 78 81 82 83 84 83 81 73 64 59 55 57
23 23 23 24 24 25 27 30 33 36 39 42 44 47 49 51 53 56 58 60 61 61 60 60 61 64 67 70 74 78 81 83 85 87 86 85 82 74 69 63 61 58 59
20 20 21 22 25 27 31 34 38 40 43 44 46 48 50 53 55 58 59 60 60 61 61 62 65 68 71 76 79 81 85 89 91 89 88 85 78 73 70 68 64 63 62
18 20 23 26 29 33 36 39 42 44 46 48 51 52 54 56 58 59 61 62 62 62 63 65 68 72 77 80 82 85 87 87 88 89 86 83 80 77 74 71 68 65 63
23 25 28 31 35 38 42 45 47 48 49 51 53 56 57 59 60 62 63 63 62 64 67 70 73 77 81 85 87 88 88 88 89 87 85 82 78 74 73 70 66 62 58
29 32 35 38 42 45 47 49 50 50 52 54 57 58 58 60 62 63 63 64 66 69 72 75 78 82 86 89 90 90 91 92 92 89 80 74 73 69 67 63 58 53 51
37 39 42 45 48 49 51 51 51 52 55 58 58 58 61 63 64 64 66 68 71 74 77 80 83 86 88 89 89 91 91 91 87 80 78 73 67 63 54 48 45 46 46

GFSMW_500_spd_033.txt.gz
Wind_Speed
3 5 5 7 6 6 6 5 4 4 5 6 7 8 10 11 13 15 15 12 13 15 16 17 18 22 25 28 31 36 35 30 33 39 44 48 46 41 43 52 54 55 55
3 5 6 5 5 5 5 5 4 3 5 6 7 9 11 13 15 15 14 17 18 17 17 18 23 26 31 35 37 39 38 36 36 39 45 52 54 54 52 56 62 61 59
5 7 8 9 8 7 6 5 5 5 6 8 9 9 11 12 14 16 17 18 18 19 20 22 27 28 33 37 38 37 37 39 39 45 52 56 56 58 64 64 69 66 61
7 6 7 7 8 9 8 8 8 9 9 9 11 11 12 14 17 18 20 20 23 25 25 27 30 31 34 34 34 37 39 43 46 47 54 62 56 55 58 74 75 70 62
9 9 10 11 11 12 13 13 13 13 13 13 14 15 15 17 18 22 24 25 28 29 32 32 32 33 36 38 38 39 41 43 44 54 60 60 55 56 64 73 68 70 67
11 13 16 16 16 18 18 18 18 19 18 18 17 18 18 17 16 18 22 28 32 35 38 36 33 36 41 41 47 38 42 49 45 53 56 55 54 73 76 77 68 65 65
15 17 17 16 16 17 21 22 23 22 22 22 24 22 20 19 19 23 23 29 29 32 35 39 38 41 35 40 40 44 48 45 55 50 52 55 69 75 78 73 68 65 68
21 19 18 20 20 20 22 23 24 26 27 21 29 27 23 22 24 27 29 33 36 40 35 37 33 34 38 41 44 49 49 48 51 51 55 68 77 74 72 69 68 70 76
27 24 21 20 21 23 24 25 27 26 26 27 33 30 23 26 27 30 35 36 39 40 34 33 35 38 42 43 43 46 50 52 51 63 72 77 75 73 72 68 69 73 75
25 26 23 24 23 24 26 26 28 28 28 27 27 24 26 27 31 35 37 40 38 34 35 35 39 41 42 42 37 46 49 59 67 72 74 74 74 72 69 68 72 73 77
26 23 28 30 26 26 26 26 25 26 25 24 24 22 24 30 35 37 40 41 42 40 39 40 43 45 46 46 50 56 60 64 68 69 71 70 71 71 69 73 74 77 81
27 27 26 28 30 30 31 29 27 27 27 27 28 28 31 34 38 38 42 44 43 42 42 44 45 47 49 50 52 56 57 64 66 68 70 73 65 65 73 75 80 81 83
22 23 25 27 29 30 30 31 30 30 31 31 32 34 35 38 39 41 43 43 44 44 45 46 47 48 47 51 55 56 57 59 67 71 74 70 66 74 76 79 81 84 84
23 23 25 27 29 32 33 34 35 36 37 36 36 36 37 39 40 42 43 43 44 45 45 47 50 52 52 55 55 58 58 56 67 69 69 72 78 80 80 81 83 83 85
25 23 24 25 27 25 30 34 34 34 34 34 35 37 38 40 42 42 42 43 43 45 47 50 53 54 56 57 59 60 62 60 65 70 69 72 75 76 79 81 81 84 85
27 24 24 26 27 28 28 30 30 30 30 34 35 37 38 39 39 41 42 44 45 48 51 54 55 57 58 59 61 62 65 65 66 67 69 72 74 77 79 80 83 84 83
31 28 28 27 29 31 30 31 31 32 34 35 36 37 37 38 39 41 44 46 49 52 54 57 58 59 61 62 63 64 65 65 65 66 69 73 77 80 83 85 85 83 81
34 33 33 32 32 33 33 36 35 35 35 35 36 36 37 39 42 44 47 50 53 55 57 58 60 61 62 62 63 64 64 66 67 71 74 78 80 83 85 86 86 86 83
35 36 37 36 34 34 34 34 33 33 35 35 35 37 39 41 44 47 50 52 54 56 58 60 61 62 62 62 63 65 67 68 71 73 77 81 85 86 87 87 87 84 80
32 33 32 32 31 31 30 31 32 32 32 34 36 39 42 45 48 50 51 53 56 58 61 62 63 63 63 63 64 66 67 70 73 76 81 85 87 87 86 87 85 83 76
29 30 30 29 29 29 30 29 29 30 33 36 39 43 46 48 50 52 54 58 60 62 61 61 62 62 62 64 66 69 72 75 77 80 85 88 87 88 89 87 84 78 73
28 28 28 28 28 27 26 28 30 33 36 40 43 46 49 50 52 54 57 60 61 60 60 62 62 63 66 67 70 73 76 80 83 86 90 89 90 91 90 87 79 73 73
24 24 24 23 24 26 28 31 34 38 42 45 48 50 52 53 55 57 60 60 60 61 61 62 65 68 70 73 75 77 80 84 87 89 89 90 91 90 86 79 76 73 69
22 22 24 26 28 31 34 38 41 45 49 52 53 54 55 56 58 60 61 60 61 62 63 66 69 72 74 77 80 83 85 87 89 90 91 92 91 87 81 77 72 66 61
26 28 30 32 34 37 41 44 48 51 53 55 55 56 57 59 60 60 61 63 63 64 67 70 74 76 79 81 84 86 88 89 91 92 92 90 86 81 76 72 63 57 51
33 35 36 39 42 44 46 49 52 53 55 56 57 57 58 60 59 61 65 67 68 71 74 77 80 82 83 85 87 87 88 88 89 89 88 84 79 75 71 62 54 50 43

GFSMW_500_spd_036.txt.gz
Wind_Speed
2 5 6 7 8 5 4 3 3 2 2 5 5 5 4 2 1 1 4 9 11 10 10 12 13 16 19 21 25 28 32 35 36 37 35 37 37 40 46 49 53 49 50
2 1 2 0 1 0 1 2 3 4 2 2 4 5 4 5 6 6 11 13 10 13 12 15 19 20 21 24 28 31 35 38 38 40 37 41 42 46 49 51 51 48 52
3 1 1 2 2 2 1 1 2 4 5 5 5 5 5 6 7 7 10 13 15 15 18 21 21 23 27 29 31 34 35 34 36 37 38 42 47 49 51 58 60 57 53
7 3 2 2 3 3 4 5 7 7 8 10 10 9 8 9 10 10 12 13 15 17 20 25 26 30 32 37 35 36 36 36 41 36 41 44 49 52 58 61 62 60 58
7 5 4 6 8 8 9 9 10 11 11 12 13 12 12 12 13 14 16 16 19 21 25 26 30 38 40 39 42 42 32 38 42 47 52 47 51 51 58 57 59 62 67
9 8 8 11 8 10 13 13 14 15 14 14 14 14 15 13 12 13 15 16 18 24 27 25 32 34 39 38 44 42 35 41 44 45 50 57 53 55 66 64 64 73 76
11 11 12 10 11 12 13 12 13 14 15 15 16 21 15 18 16 16 16 18 22 24 28 32 35 40 39 35 33 33 38 40 43 43 55 50 52 62 64 67 76 77 75
17 18 18 18 16 17 14 13 14 16 17 17 18 17 19 27 24 19 20 27 20 26 31 35 35 31 29 30 34 38 41 44 47 43 46 52 59 62 71 78 75 73 73
26 26 23 26 25 22 19 16 17 19 20 20 21 21 22 24 40 30 21 27 26 29 33 32 35 36 36 37 40 41 43 44 47 49 50 56 66 72 71 71 72 68 70
22 25 26 27 26 24 25 21 20 23 23 24 23 24 20 21 28 14 23 27 31 34 34 37 38 38 39 41 43 44 46 49 50 51 56 61 65 68 70 69 70 71 72
21 19 23 22 24 29 27 29 38 21 28 27 29 27 26 29 30 28 29 33 34 35 38 39 39 40 42 43 45 48 50 51 55 56 58 62 66 68 68 70 69 69 78
18 19 21 26 28 27 30 33 33 28 30 30 33 31 28 28 33 30 33 36 36 39 42 41 43 43 44 46 48 50 53 56 54 58 60 64 65 67 66 70 71 82 79
28 24 19 23 26 28 31 33 34 33 33 33 34 32 30 35 32 36 37 38 39 43 44 44 44 46 48 50 52 54 56 56 56 61 62 64 65 65 66 68 72 74 76
25 25 23 21 26 27 30 33 34 35 36 36 38 38 36 37 36 38 39 40 43 45 45 45 46 48 51 52 55 56 57 59 61 62 63 62 64 66 68 70 73 76 79
28 26 30 24 25 27 29 30 31 34 36 36 37 35 35 35 36 38 41 43 44 44 44 46 48 51 53 55 58 60 62 62 63 63 63 64 65 67 69 72 75 78 81
29 28 30 29 28 28 27 24 26 31 33 35 34 34 36 39 39 39 40 40 40 43 46 49 51 53 56 58 60 61 62 62 62 62 63 64 66 69 71 74 76 79 83
30 30 32 32 31 30 29 29 30 31 32 31 32 35 35 36 37 38 39 40 42 45 48 51 53 55 56 58 61 62 63 63 62 61 63 65 68 71 74 76 79 81 86
27 30 33 36 34 33 34 34 33 34 33 36 36 36 37 37 38 38 41 43 46 48 51 54 55 56 59 61 62 61 61 60 60 62 65 67 70 75 78 80 82 85 86
33 35 35 35 37 38 38 37 36 35 35 37 37 36 37 36 37 40 43 45 49 52 54 55 56 58 60 62 60 61 60 61 64 66 67 71 75 79 81 84 87 89 88
32 32 32 32 33 34 34 34 35 35 36 36 36 36 35 37 40 42 45 49 52 54 56 57 59 61 63 61 62 61 61 64 66 69 72 75 78 81 85 88 91 92 91
31 31 31 32 32 33 34 33 34 34 35 35 34 35 36 39 43 47 50 53 55 56 58 60 62 63 61 62 63 62 65 67 70 73 75 79 83 86 87 89 91 92 92
31 29 29 30 31 32 32 30 30 31 32 33 35 38 41 45 49 52 54 55 56 58 59 61 62 61 64 67 67 70 72 74 76 78 81 85 88 90 91 92 92 91 89
30 27 27 27 28 28 28 27 29 31 34 37 41 44 47 50 53 55 56 57 58 59 60 60 62 66 69 70 73 76 78 79 81 82 85 87 89 90 90 90 89 87 83
30 27 27 27 27 28 28 31 34 37 40 43 47 50 54 56 57 57 58 58 59 58 58 62 65 68 71 74 77 79 81 81 84 86 88 87 85 85 86 86 85 81 75
31 30 30 30 32 33 35 38 40 43 46 49 52 56 58 59 60 61 59 59 61 64 67 70 74 77 78 78 79 82 84 85 87 88 88 87 84 83 83 83 79 74 71
36 35 36 36 38 40 42 45 47 50 52 54 57 60 60 62 61 62 60 64 68 71 72 75 79 79 80 81 84 85 86 88 89 89 87 84 81 82 82 78 72 69 68

GFSMW_500_spd_039.txt.gz
Wind_Speed
7 9 8 10 10 11 9 8 8 8 7 11 10 9 12 9 9 11 11 12 12 11 12 14 17 18 20 20 19 21 23 26 26 28 29 25 28 30 32 39 43 48 47
7 3 3 4 4 6 6 6 7 8 9 5 6 7 8 5 2 3 3 6 7 7 8 12 18 20 20 20 23 26 28 30 30 30 29 32 32 30 39 44 47 51 50
4 4 3 3 5 5 6 8 10 10 9 8 7 6 3 2 1 4 4 7 6 8 10 12 16 19 20 24 26 30 33 37 37 34 30 31 32 36 41 46 52 57 58
3 3 2 2 3 3 3 4 5 5 3 3 4 4 4 3 4 6 6 7 7 8 11 14 15 19 24 30 34 37 39 40 42 42 43 41 40 40 42 45 54 52 52
3 5 3 2 3 1 2 3 1 2 2 3 3 3 4 5 7 10 11 11 10 12 14 16 19 20 22 29 31 34 41 35 38 36 35 40 43 42 43 49 54 55 55
5 2 2 2 3 4 5 6 6 6 7 7 7 7 9 8 9 10 13 16 14 12 14 13 15 17 23 27 29 28 28 28 32 33 40 43 47 48 48 53 53 54 60
8 5 3 4 5 9 10 10 10 11 8 9 10 11 13 12 12 14 14 17 22 17 21 18 18 20 20 25 26 26 28 33 37 39 41 44 47 50 50 54 57 61 64
14 12 8 10 12 13 14 14 14 13 13 11 12 15 16 16 17 17 19 23 30 25 23 17 21 24 24 27 31 32 34 37 40 40 43 45 46 49 52 55 58 59 62
19 18 13 12 12 18 20 17 19 20 19 16 12 14 20 22 17 19 17 22 29 27 24 20 21 26 28 32 34 36 38 39 42 44 47 49 52 55 54 56 59 60 61
19 19 21 17 14 15 17 16 21 20 26 22 19 18 18 21 22 22 18 20 21 25 24 25 25 29 33 36 38 39 40 42 45 47 50 52 55 55 55 58 59 61 63
19 20 20 24 25 23 20 20 27 33 26 17 26 27 26 27 26 25 38 30 22 24 28 26 31 35 36 39 40 41 43 46 49 51 52 54 54 54 56 60 62 63 64
16 18 21 19 22 26 26 27 29 26 23 27 28 26 31 39 36 22 26 30 27 25 31 30 35 38 40 41 42 44 47 50 52 54 55 56 56 57 59 62 63 63 64
26 24 22 22 21 23 26 28 27 27 29 30 25 20 26 25 27 33 30 32 37 36 33 36 39 41 41 43 45 47 50 52 53 55 56 58 59 59 61 62 62 63 65
28 24 15 18 19 22 25 28 26 27 29 28 29 32 36 36 35 34 33 35 37 35 36 39 41 41 42 44 46 49 52 54 56 57 59 61 62 62 62 61 63 66 68
21 25 21 22 22 23 23 26 28 30 31 32 32 34 33 35 36 35 37 38 36 38 41 41 40 41 44 47 49 53 54 55 57 59 61 62 62 62 61 63 65 69 72
39 36 30 31 25 23 24 25 28 30 31 31 31 31 33 35 36 36 37 37 38 40 40 39 41 43 46 50 53 55 56 58 60 60 61 62 62 62 64 65 67 70 74
37 33 35 35 29 26 26 29 30 30 30 31 33 33 33 32 34 37 38 38 38 38 38 40 42 46 49 53 56 56 58 60 60 60 61 63 64 67 65 66 69 72 76
25 20 30 32 30 30 30 32 34 33 33 33 33 34 34 34 35 35 35 36 35 36 38 42 46 50 53 56 57 58 59 59 59 61 64 66 68 70 73 74 75 76 79
29 27 28 31 32 33 34 33 30 32 32 34 35 35 36 36 36 36 35 35 37 39 43 48 51 54 56 57 59 60 60 59 60 63 67 71 74 78 80 79 79 82 83
30 31 30 32 33 33 32 33 31 32 34 35 36 37 37 37 37 36 36 38 41 45 50 53 55 57 59 60 60 60 60 60 64 69 73 75 79 82 82 84 86 87 88
31 32 34 36 35 33 32 31 32 32 33 35 36 37 37 37 36 37 40 43 47 51 55 58 58 59 59 60 60 61 62 65 69 72 75 79 81 82 84 84 86 89 93
35 34 36 37 36 35 34 31 31 31 33 35 35 36 36 37 39 42 46 49 53 57 59 60 60 60 59 60 62 65 67 68 75 76 79 81 81 82 85 86 90 94 95
35 37 37 39 39 37 34 32 32 33 34 34 34 35 38 40 44 48 51 55 58 60 62 63 63 63 62 65 69 73 75 77 78 80 81 82 82 85 87 91 95 95 91
39 39 38 38 38 37 36 35 35 35 36 36 37 40 43 46 49 53 56 59 61 62 64 65 64 63 64 71 75 76 75 78 83 83 83 83 85 87 91 94 93 88 84
42 40 38 38 39 38 37 37 37 39 40 40 43 47 50 53 54 57 60 63 64 65 63 65 67 69 72 75 79 77 77 83 84 85 85 85 86 91 93 93 88 82 82
45 44 41 39 39 40 40 41 42 44 45 47 51 54 56 58 59 63 64 63 65 65 66 71 71 73 78 80 78 78 82 84 86 85 86 88 92 94 94 89 83 82 81

GFSMW_500_spd_045.txt.gz
Wind_Speed
1 3 4 2 4 9 13 12 13 13 19 19 18 17 16 14 10 11 15 12 15 19 20 18 18 19 20 22 24 26 23 23 24 23 24 25 28 29 30 32 34 35 35
3 4 3 4 3 4 7 10 8 10 12 13 15 15 15 15 14 12 11 14 16 18 18 18 19 19 21 23 24 26 28 25 25 26 28 29 31 33 35 34 35 37 37
6 6 5 4 4 5 5 7 8 8 11 13 12 11 8 10 11 11 9 14 14 17 19 18 15 19 23 24 28 29 26 28 29 30 31 32 33 32 31 31 30 32 34
6 7 7 7 6 6 5 7 8 6 7 8 11 13 14 14 12 12 13 15 16 16 19 19 20 25 24 29 30 27 26 29 30 29 31 33 35 32 31 34 35 33 35
2 5 8 8 9 7 7 6 5 6 6 5 6 9 10 12 12 10 10 10 12 11 16 18 21 25 26 29 26 27 28 31 30 28 29 30 30 30 31 33 35 38 39
8 5 7 6 5 6 5 5 6 7 8 7 8 10 11 11 12 11 11 9 10 9 14 17 22 24 28 28 28 26 29 30 35 35 34 33 32 33 34 37 38 38 39
14 11 9 8 7 7 7 6 7 9 10 8 7 8 8 9 9 13 13 9 10 15 17 20 21 27 32 31 33 33 34 27 31 33 34 35 36 36 36 37 37 39 42
11 9 12 12 8 8 10 10 9 9 9 9 11 12 13 13 12 13 17 17 15 17 21 22 24 30 30 33 34 34 35 29 32 36 35 35 35 35 37 38 38 42 46
17 10 11 14 14 12 11 15 12 11 10 13 17 18 18 18 18 18 19 21 21 23 26 28 26 27 38 33 36 36 29 28 31 30 33 36 38 36 37 40 42 47 49
16 19 15 13 13 14 14 14 14 10 13 15 15 18 23 21 25 28 25 23 25 27 31 33 34 34 36 35 35 32 27 29 30 32 34 35 36 37 40 44 48 51 52
15 15 19 13 12 14 16 16 18 17 16 18 21 26 31 30 31 29 37 29 34 37 39 42 39 40 32 32 28 27 29 29 32 34 35 35 37 40 44 49 52 54 55
19 17 20 20 16 15 17 18 18 19 20 23 26 30 32 34 35 40 38 39 37 37 35 34 43 36 29 31 27 27 31 32 33 34 35 37 40 45 49 53 55 55 56
18 17 20 22 21 23 22 23 23 24 25 25 25 25 26 30 31 22 20 24 26 25 24 24 28 28 20 23 28 30 33 34 35 36 37 41 45 49 53 55 55 56 57
28 30 28 20 25 21 20 20 21 24 26 25 24 26 27 26 29 27 23 22 23 25 26 28 24 26 27 28 28 32 35 36 36 38 41 45 49 53 55 56 57 57 59
31 25 25 26 29 30 20 18 19 23 26 29 28 29 29 30 30 27 26 24 26 28 27 29 29 30 33 32 35 38 38 37 38 41 45 49 53 55 57 59 58 61 58
30 26 26 28 23 24 28 29 30 27 31 31 30 32 32 32 32 29 28 27 29 29 30 32 33 36 35 36 39 39 38 39 41 45 49 54 57 59 60 62 63 62 63
32 33 31 31 27 28 34 33 25 25 25 28 30 33 33 33 32 32 32 31 34 34 33 33 36 39 40 39 39 39 41 44 47 51 55 59 62 64 65 66 66 67 69
37 36 32 32 33 31 30 31 33 29 27 30 34 36 35 36 36 37 38 37 36 36 38 39 40 40 40 41 42 43 46 49 53 57 62 65 66 68 69 70 70 72 75
36 34 37 37 32 36 35 34 37 30 29 29 31 33 33 34 35 36 38 39 40 42 42 43 43 43 43 44 45 47 51 54 57 62 65 67 69 69 71 71 72 76 80
34 31 33 35 36 36 34 35 39 34 31 30 30 32 33 35 37 38 39 41 42 44 46 47 47 46 47 48 50 53 55 58 63 66 68 71 71 71 73 74 76 80 82
34 37 38 40 40 41 37 34 39 36 36 34 34 35 36 37 38 39 42 43 44 46 47 48 49 50 51 52 54 58 61 64 68 70 72 75 76 76 75 76 80 84 86
42 43 44 40 42 41 38 37 40 41 40 39 39 40 40 40 42 43 44 45 47 48 49 50 51 52 54 57 60 64 66 69 72 74 77 79 77 75 77 82 86 88 90
43 47 47 41 39 39 38 41 40 43 44 42 42 41 42 42 43 45 47 48 50 51 52 53 55 57 60 62 65 68 70 73 75 78 77 77 78 80 85 88 90 92 91
38 36 40 41 43 43 44 39 41 43 45 44 44 42 44 46 46 47 48 50 51 53 56 58 61 63 65 67 70 73 76 78 80 80 79 80 83 88 91 92 93 92 88
42 39 40 43 42 37 40 41 42 46 47 49 50 49 50 51 51 51 51 53 55 58 61 64 66 68 70 72 76 81 81 79 80 82 84 87 91 93 94 94 91 88 89
43 45 45 45 38 39 39 42 43 44 45 48 49 49 50 52 54 55 56 58 60 63 66 68 70 72 75 78 80 80 80 82 85 87 89 92 93 94 93 90 88 88 90

GFSMW_500_spd_051.txt.gz
Wind_Speed
12 10 7 7 5 7 8 9 18 16 20 11 11 10 13 15 20 27 26 25 23 24 27 29 29 28 30 29 28 28 31 33 31 32 37 36 30 29 29 30 29 31 33
10 9 10 8 6 3 4 1 4 16 21 17 20 18 16 18 19 27 23 26 27 27 28 30 28 27 28 27 27 27 29 33 31 31 33 29 27 31 32 33 35 36 37
9 9 10 8 7 4 1 4 2 1 9 18 23 23 23 24 24 28 26 27 32 28 30 32 26 26 24 24 25 26 29 29 29 33 30 31 33 34 36 36 37 38 40
8 9 8 6 5 3 1 2 2 2 2 6 8 9 9 11 20 23 20 21 24 24 25 21 20 23 20 21 24 27 29 27 28 29 33 37 37 38 38 38 39 38 35
7 10 8 5 3 3 3 2 2 3 4 6 7 8 9 11 14 14 13 15 14 14 15 17 19 19 19 22 25 28 29 29 31 32 36 36 37 39 41 39 39 38 39
11 10 10 8 6 7 7 8 7 6 7 8 10 9 9 11 13 16 17 17 16 17 19 21 21 21 23 25 28 31 31 28 32 32 33 37 40 39 40 42 41 43 37
12 9 11 13 10 9 8 8 8 8 7 8 9 9 10 11 11 11 13 13 15 17 20 20 22 25 28 31 31 32 31 31 33 33 36 39 40 42 40 43 44 48 42
14 10 10 15 16 13 10 10 10 11 12 13 12 12 12 12 12 10 11 13 14 16 19 20 23 25 28 29 30 28 27 28 32 32 33 41 46 47 45 49 47 45 45
18 17 12 15 13 15 15 15 14 14 15 14 15 17 17 16 16 13 14 16 18 20 22 24 25 26 29 29 30 31 33 34 36 39 40 36 45 50 50 54 46 50 50
20 18 17 17 17 18 20 21 20 17 16 14 14 14 16 17 17 18 19 20 21 24 26 29 31 32 31 32 35 38 39 39 44 44 45 44 45 48 53 47 42 44 41
20 20 20 22 17 16 18 20 21 18 18 19 19 20 20 20 21 22 24 25 28 32 33 36 36 37 37 37 38 41 45 46 49 49 50 46 37 43 43 39 39 40 42
24 20 25 23 18 16 20 25 22 20 19 19 20 22 23 26 25 26 28 28 26 26 27 26 32 39 46 36 41 38 33 39 41 45 33 32 34 38 40 37 40 40 42
27 23 26 25 25 24 22 24 24 25 26 25 25 28 28 30 30 29 31 31 29 29 30 27 24 22 28 28 31 30 24 27 31 38 37 38 39 39 41 41 42 45 45
26 30 29 29 29 25 22 25 30 29 26 24 25 28 27 26 27 29 31 34 33 32 31 29 28 26 24 29 33 30 30 30 31 35 38 40 42 44 46 45 47 49 49
31 27 31 31 30 31 29 28 31 34 34 31 26 27 26 26 29 32 34 36 36 34 32 32 31 31 30 31 33 35 34 33 35 38 38 39 41 43 46 49 50 51 53
30 30 28 32 36 35 35 36 37 37 36 32 27 31 34 34 36 35 37 34 34 35 35 34 33 35 35 35 36 37 37 37 39 39 41 42 46 48 50 52 53 55 56
34 33 30 29 31 35 40 35 33 35 37 37 32 33 35 39 37 34 35 33 33 35 35 37 39 37 41 41 39 38 41 40 43 43 46 49 52 52 53 54 55 57 58
41 34 32 31 29 28 33 34 32 34 36 38 37 36 39 36 34 35 36 35 33 33 34 36 36 38 40 42 43 41 43 44 47 49 51 54 53 54 55 56 57 59 61
45 38 32 32 30 29 35 35 35 32 30 34 35 36 39 40 36 36 35 34 35 34 34 37 38 37 39 41 43 45 46 50 53 55 56 55 56 56 57 58 59 61 65
43 45 38 36 32 30 30 32 35 35 30 31 33 37 42 42 36 36 37 36 35 36 37 36 38 40 42 43 45 48 51 52 55 55 57 58 58 59 60 62 63 66 68
39 46 47 40 38 37 37 35 31 32 36 33 36 37 39 42 40 39 37 38 37 39 41 42 42 43 45 47 47 49 51 53 55 56 58 59 60 62 64 66 68 70 73
37 40 46 47 43 39 41 41 39 37 36 36 37 39 41 39 37 38 42 42 41 42 43 44 45 46 47 48 51 52 54 56 57 58 60 61 64 66 68 70 72 75 78
38 37 44 50 49 46 46 44 47 41 38 44 46 47 47 43 42 44 46 45 46 47 47 48 50 52 54 55 56 56 57 58 60 62 63 66 68 70 72 74 76 80 84
38 38 41 43 38 39 42 46 45 46 48 52 47 44 45 44 48 47 46 47 47 49 51 52 52 52 54 55 56 58 60 61 63 65 67 70 73 76 78 80 82 83 86
41 42 36 34 34 35 35 36 39 41 40 40 45 49 49 50 50 53 54 52 49 50 50 52 53 54 55 58 59 61 64 66 68 70 73 75 78 81 83 84 85 85 87
45 42 41 39 37 37 39 39 38 37 38 42 46 47 52 53 53 51 50 51 51 50 51 53 53 55 58 61 64 66 68 70 73 75 77 79 82 84 86 86 86 89 92

GFSMW_500_spd_054.txt.gz
Wind_Speed
16 13 12 13 12 13 10 8 10 23 10 10 9 10 13 20 29 25 31 24 19 19 23 29 29 29 29 28 27 28 30 31 31 32 36 36 37 32 32 33 31 30 30
18 13 11 10 11 11 10 7 7 7 9 10 17 10 7 9 11 19 23 22 20 19 20 20 26 28 29 28 30 30 29 30 29 31 31 34 33 33 37 36 33 32 33
16 13 10 10 8 7 10 5 6 8 7 17 16 17 14 14 10 15 19 21 18 19 24 24 25 26 27 29 29 30 30 28 27 29 27 29 32 36 32 31 33 35 37
15 11 8 9 6 5 5 5 3 4 4 2 8 15 15 14 16 17 19 21 20 21 25 28 27 26 28 27 25 26 26 24 24 24 28 30 31 32 32 35 37 39 40
15 12 7 9 7 5 3 5 5 2 3 2 4 5 6 8 8 18 24 21 24 22 24 26 26 20 19 19 18 19 21 21 21 23 27 28 31 33 36 39 43 42 44
17 16 11 8 8 7 4 6 8 7 4 3 6 5 5 8 10 11 14 16 17 16 18 19 18 18 20 20 19 23 24 26 26 29 32 32 35 38 40 42 43 44 47
16 15 15 9 9 10 8 7 5 5 6 7 6 8 9 10 10 10 11 13 13 16 16 16 18 20 22 24 28 27 31 29 29 31 34 33 34 36 40 43 41 44 44
18 14 18 13 11 10 11 11 10 8 6 6 8 10 10 10 12 13 13 14 16 16 17 17 19 21 24 25 27 29 31 32 32 33 34 36 36 40 42 44 42 47 48
20 17 20 15 15 12 12 11 12 11 12 12 13 12 13 15 15 14 15 15 16 17 18 17 19 22 25 27 30 31 33 35 35 33 34 37 38 42 48 48 49 50 54
22 22 22 19 17 15 13 13 15 18 16 14 15 14 13 13 16 18 20 20 19 19 19 22 25 26 30 33 34 36 36 39 38 41 41 42 44 47 52 59 56 61 64
25 27 23 21 19 22 19 19 18 17 18 18 17 18 19 19 18 17 17 20 20 22 24 25 26 26 31 35 38 38 41 42 41 42 45 49 51 54 59 63 63 56 52
25 29 28 26 23 25 24 21 22 23 23 23 19 19 18 18 21 22 21 22 24 25 23 25 27 27 27 27 32 38 41 46 46 46 51 42 48 48 45 41 40 36 38
27 31 31 26 28 28 27 24 23 24 25 25 24 24 23 23 24 27 28 29 28 27 27 29 28 28 29 32 30 30 36 39 40 42 42 37 40 43 39 39 44 42 40
27 32 36 34 32 34 33 32 31 29 28 29 28 27 26 24 27 30 31 29 27 27 28 31 32 32 33 33 34 33 34 34 38 37 36 42 41 43 42 44 47 45 48
29 32 32 35 34 31 33 34 34 33 32 32 31 31 33 32 29 29 28 28 29 31 33 34 35 35 37 37 36 39 39 38 39 41 41 43 44 43 40 42 44 47 51
30 30 32 37 37 38 38 38 38 37 35 35 37 36 36 36 33 32 34 35 36 37 37 33 36 36 36 37 38 41 40 43 42 39 42 42 45 42 44 47 49 53 55
36 33 30 36 37 39 39 42 42 42 44 43 44 41 39 37 37 39 39 37 37 37 36 37 38 37 35 36 39 41 43 43 44 44 42 47 47 50 50 52 55 58 60
38 39 38 37 35 39 43 41 43 45 47 48 48 41 40 39 40 42 40 41 41 40 39 39 39 38 36 37 38 40 42 43 44 45 48 49 52 53 55 58 61 64 64
46 43 43 41 39 35 41 45 45 46 47 47 46 46 43 41 45 42 41 43 44 45 45 44 41 38 37 38 40 41 44 46 48 50 52 54 55 57 53 58 65 66 71
47 45 44 43 43 38 39 42 48 45 44 46 47 47 42 41 43 44 43 42 43 43 42 45 46 45 41 43 43 45 46 49 51 53 55 56 58 60 62 65 64 71 69
47 45 37 39 43 45 42 41 44 42 42 46 46 46 46 44 45 47 48 44 41 42 42 43 46 50 50 48 48 48 51 52 53 54 56 58 59 64 64 67 67 68 69
51 44 41 40 41 45 41 45 45 44 44 44 45 49 51 49 47 50 50 56 59 45 44 45 48 50 51 52 53 53 53 53 55 57 56 58 57 66 67 66 68 70 71
50 50 45 42 46 46 44 47 49 48 46 48 47 48 48 50 51 53 57 56 60 54 52 50 54 53 52 52 53 54 56 48 47 52 60 62 63 65 67 70 72 72 76
46 51 44 43 46 48 48 50 53 52 49 51 50 48 53 54 56 57 55 50 50 54 54 58 56 56 54 54 54 54 52 50 64 65 65 65 67 69 71 73 76 78 82
42 42 42 41 43 45 44 47 55 53 48 47 51 53 57 60 58 53 55 58 57 59 57 56 57 57 55 55 55 55 58 63 62 64 67 68 70 74 76 78 82 85 86
23 35 37 40 45 44 45 50 50 46 45 46 47 52 55 56 53 52 52 55 55 57 68 60 60 58 56 56 57 59 62 65 68 70 71 73 76 78 78 79 82 83 85

GFSMW_500_spd_060.txt.gz
Wind_Speed
14 13 16 15 11 14 14 14 13 11 13 13 13 13 15 20 35 35 33 29 29 33 31 22 27 35 42 50 43 42 38 30 25 21 22 24 28 27 27 29 30 29 27
15 11 13 12 12 12 12 13 11 10 12 10 7 5 9 13 27 31 29 27 28 27 23 29 30 39 35 39 47 39 32 26 23 23 23 26 26 24 28 29 28 28 29
14 11 10 10 12 10 10 11 9 8 10 12 4 4 4 3 6 18 23 21 21 21 20 16 19 25 28 35 34 30 25 22 21 23 24 26 22 22 21 23 24 25 25
15 12 10 9 9 10 8 8 7 6 7 9 9 5 8 5 3 3 17 20 21 21 16 13 12 10 12 20 23 25 23 22 23 24 22 20 15 11 15 16 15 20 25
16 16 10 8 7 8 7 5 5 5 5 5 4 5 8 10 7 7 6 7 9 14 15 13 14 10 10 13 21 22 23 22 19 16 14 12 10 11 15 16 17 19 20
12 15 12 12 8 9 7 6 4 5 4 3 4 3 5 2 3 2 4 5 13 11 15 15 12 15 16 17 20 22 20 14 11 10 12 12 12 16 15 17 20 20 26
14 15 14 15 11 9 11 9 6 2 2 3 4 4 4 2 2 1 3 2 2 1 2 5 8 10 12 15 19 19 16 16 11 12 14 18 18 22 21 23 26 30 31
17 14 15 17 13 11 12 11 8 5 2 2 3 5 5 5 3 3 3 5 6 9 9 11 13 14 13 12 12 15 16 16 17 18 20 24 24 27 28 30 30 34 38
20 18 17 19 19 14 12 12 9 8 6 5 6 7 8 7 7 8 8 6 7 8 9 11 12 12 13 13 16 17 17 20 22 23 24 27 28 30 33 35 36 38 40
23 21 21 20 22 19 16 14 14 14 11 10 11 9 8 8 9 7 7 9 11 12 13 14 14 15 14 16 18 17 22 24 24 27 29 31 31 32 36 38 39 40 44
20 22 23 20 22 24 22 19 18 18 16 16 17 15 12 11 12 13 13 11 11 13 14 17 17 16 16 18 21 22 21 22 24 25 27 30 33 37 41 42 44 43 45
25 27 25 24 25 24 27 25 24 23 23 21 19 18 16 15 15 16 16 16 15 14 16 17 17 19 22 24 25 24 23 25 25 25 27 29 32 33 32 36 41 43 50
30 28 27 26 25 26 28 28 26 26 28 27 23 21 20 19 19 21 23 21 21 21 22 23 24 25 26 26 26 26 26 25 26 28 31 33 34 35 37 39 41 39 44
29 30 28 27 28 28 31 31 30 29 31 32 29 27 25 25 25 26 27 28 26 26 25 25 26 29 29 26 27 29 30 32 33 35 36 37 37 38 40 42 43 43 43
33 31 27 27 31 29 28 31 34 34 33 33 34 33 32 32 31 31 32 32 33 31 33 31 30 30 31 31 32 34 36 38 40 40 40 40 42 43 43 42 45 44 43
34 26 29 32 34 35 36 35 34 34 36 36 37 35 37 36 35 34 34 35 35 35 35 35 34 34 35 35 37 39 39 40 40 40 41 43 45 45 47 48 47 45 49
32 34 35 37 37 38 40 40 39 37 39 39 36 38 39 39 37 38 40 39 40 40 38 36 39 40 41 41 41 42 45 44 44 44 44 43 44 46 48 49 48 49 50
31 33 35 36 36 39 43 44 44 43 43 41 40 40 42 42 41 42 43 44 44 43 43 43 40 42 43 43 42 45 47 48 48 49 49 49 47 48 50 51 52 53 54
33 33 34 36 37 40 40 41 41 44 44 43 42 42 43 45 46 46 44 45 47 48 48 48 46 43 43 45 45 47 47 47 48 49 51 52 52 52 53 54 56 58 59
36 33 33 35 37 36 37 40 43 45 46 47 48 48 48 49 49 49 49 51 52 52 52 51 47 47 47 48 50 48 50 53 54 52 53 54 57 58 58 59 61 63 65
31 31 32 32 34 36 38 39 40 44 48 50 51 53 55 54 53 54 54 55 55 54 53 53 52 51 53 55 54 54 54 58 56 54 56 56 56 60 61 61 67 59 69
26 30 31 33 35 37 39 41 44 46 47 49 52 53 57 59 57 58 59 60 59 59 60 58 58 55 62 62 61 64 61 63 63 59 61 64 55 60 65 69 60 60 65
30 32 34 35 37 39 43 45 47 49 51 52 54 57 60 64 66 64 64 63 65 64 63 63 63 65 63 67 61 65 69 72 74 76 68 65 67 62 67 67 73 76 65
34 35 37 39 41 43 46 49 51 53 54 58 57 63 65 66 70 71 70 66 67 68 63 67 70 66 70 63 70 68 66 73 78 63 72 71 67 74 78 72 76 69 67
38 40 42 44 45 46 48 51 52 57 58 59 60 61 68 68 65 71 74 71 69 67 68 71 64 68 72 68 64 69 66 77 76 75 77 77 73 71 69 64 67 70 68
44 46 47 48 48 49 51 53 53 56 58 56 54 56 59 65 62 60 64 67 78 71 72 70 73 78 74 74 66 71 79 81 71 69 71 71 75 61 61 60 66 72 76

GFSMW_500_spd_063.txt.gz
Wind_Speed
10 17 19 12 16 8 9 10 12 12 14 12 13 5 12 14 22 29 31 33 29 27 28 33 31 26 26 37 41 40 42 39 38 31 28 24 24 21 21 23 25 25 25
12 17 17 10 12 6 6 8 9 10 12 11 9 5 11 9 12 15 29 33 29 30 27 27 27 25 22 27 38 42 39 45 42 37 30 27 22 24 25 25 22 25 26
9 13 15 10 9 5 6 7 7 8 8 10 6 4 9 6 8 9 20 27 28 29 28 25 21 20 24 27 35 37 29 36 42 32 27 23 23 27 27 25 24 22 21
10 7 15 12 8 7 4 6 5 7 6 7 9 9 4 4 2 7 19 26 22 22 21 20 20 20 26 29 32 35 17 27 25 24 23 26 27 26 25 19 13 14 18
12 8 14 14 8 7 4 5 3 5 5 3 5 6 8 9 2 5 4 20 27 26 24 22 17 16 15 15 20 19 21 22 24 24 25 25 21 21 21 20 17 13 15
13 10 9 13 13 9 8 5 6 5 5 2 1 3 4 6 8 8 3 5 7 15 19 17 18 20 14 13 14 19 22 18 22 22 18 15 15 16 16 16 15 14 14
18 9 8 13 15 13 12 8 7 8 4 2 1 3 3 3 3 3 3 3 9 14 15 18 20 16 14 16 19 20 19 16 17 17 17 16 18 19 18 18 20 21 22
21 14 12 12 16 16 15 12 8 9 9 6 4 2 1 2 1 0 3 3 3 3 5 6 10 13 14 14 14 15 16 18 18 20 22 21 20 21 24 24 26 28 30
26 21 17 14 17 18 18 14 12 11 10 11 9 7 4 3 1 4 5 4 4 4 7 10 13 14 18 21 22 21 22 23 21 21 23 24 25 28 30 32 32 31 33
30 24 22 18 18 19 18 17 15 14 12 13 11 8 7 7 5 6 5 4 5 6 7 8 9 12 14 15 16 16 17 18 17 22 24 25 26 29 32 32 34 35 38
31 26 28 23 20 19 22 21 20 16 15 16 17 16 13 12 11 10 9 8 8 8 9 9 11 13 15 16 14 15 18 19 20 21 23 25 26 28 30 30 32 35 37
30 30 31 31 24 20 22 25 24 24 18 20 20 18 15 14 13 13 14 12 11 11 12 11 12 15 17 18 20 21 22 22 23 24 26 25 27 28 31 32 33 35 35
31 29 31 30 29 24 23 24 29 29 26 23 23 21 19 18 19 18 17 17 17 18 16 15 16 20 22 24 25 25 27 27 27 28 29 28 31 32 34 36 37 37 40
32 31 30 29 27 28 28 23 23 29 31 27 24 23 22 23 25 26 23 20 21 22 22 22 21 21 24 23 25 28 28 29 30 30 32 33 36 37 39 42 41 43 44
35 31 31 28 30 30 32 29 27 24 28 30 28 26 26 28 28 29 30 31 27 26 26 27 27 25 27 28 26 29 30 32 35 36 38 39 40 41 41 43 42 46 47
39 33 30 29 31 31 30 33 31 32 32 29 31 32 33 34 33 33 34 36 35 33 31 30 30 32 29 28 30 32 36 38 38 38 39 40 40 39 42 44 45 45 45
42 36 32 32 31 32 35 34 36 35 36 38 34 35 36 35 35 36 37 36 36 37 37 36 36 37 35 33 33 37 41 42 41 42 43 44 43 42 43 43 44 45 47
40 39 38 39 34 35 38 39 40 39 40 41 42 40 40 40 39 40 40 39 39 42 43 44 43 44 40 38 38 39 42 44 44 47 47 46 45 44 45 46 47 49 49
31 29 29 32 35 36 37 38 40 43 42 44 45 45 43 43 43 43 42 40 41 43 45 47 47 44 43 45 41 41 43 45 49 51 51 48 49 49 48 50 51 52 55
31 35 36 35 37 37 38 39 41 44 47 47 48 48 46 46 47 48 49 48 48 47 49 51 50 50 51 49 48 46 47 50 53 54 54 53 55 52 52 56 58 61 61
36 37 36 37 35 36 37 39 41 42 46 47 48 49 51 51 50 52 54 56 57 56 54 54 55 54 54 55 52 52 54 56 57 58 61 62 61 60 62 63 63 66 64
33 30 30 30 29 32 34 37 40 41 44 47 49 51 53 55 56 57 59 61 62 61 61 62 61 61 61 60 61 61 61 61 64 65 67 67 68 67 66 69 71 76 79
30 30 30 31 33 35 37 38 40 42 45 47 49 50 52 56 59 61 63 68 70 68 67 68 68 67 68 70 69 67 70 66 67 70 70 70 69 67 70 75 73 74 69
32 32 32 33 35 38 40 42 43 44 45 47 49 52 56 59 62 65 68 71 75 78 77 75 75 74 72 72 71 71 72 74 75 77 70 76 76 73 77 79 70 80 75
34 34 35 37 39 41 44 45 48 49 50 52 52 53 55 59 61 63 66 69 76 80 79 78 80 81 72 69 72 71 79 71 80 75 73 73 75 73 75 67 66 77 93
37 39 41 42 44 46 49 51 53 55 57 56 56 58 61 60 59 51 52 57 64 72 77 73 71 73 74 72 64 84 64 76 77 69 65 77 67 76 75 72 86 82 66

GFSMW_500_spd_066.txt.gz
Wind_Speed
9 12 16 15 16 11 12 9 10 12 13 11 10 8 12 12 15 20 25 28 31 32 32 27 26 30 25 25 27 28 32 36 42 31 30 32 31 28 27 25 25 26 26
7 10 13 13 13 10 9 8 7 10 12 11 11 8 7 12 18 23 27 32 32 36 34 28 25 29 29 27 27 27 33 29 41 40 36 35 35 33 31 28 29 28 27
9 7 12 10 12 10 9 8 6 7 10 10 10 3 7 6 6 11 18 26 31 36 34 29 26 26 30 27 29 24 28 38 41 41 39 40 39 36 33 28 28 30 28
11 7 12 9 12 12 10 8 6 5 7 8 7 8 9 5 6 7 10 23 25 27 29 30 28 27 27 27 25 28 27 27 37 35 26 34 36 31 31 31 29 30 28
12 6 9 13 12 12 10 9 7 5 6 6 5 4 4 8 6 4 5 20 28 29 32 32 29 29 28 25 24 28 27 28 27 19 24 26 28 31 33 32 30 25 24
13 11 10 17 12 13 11 10 9 8 7 5 5 4 4 3 5 7 4 8 23 30 24 24 23 25 22 23 25 33 27 19 23 24 24 25 31 32 32 29 25 25 25
18 12 7 18 17 12 14 13 12 11 9 6 5 3 2 2 0 1 4 6 10 8 13 20 21 19 21 20 19 19 24 26 24 25 25 26 26 26 23 20 22 23 24
13 11 9 12 17 15 14 15 14 13 12 10 8 6 3 2 3 2 2 2 6 6 10 16 18 18 22 21 18 21 22 25 27 28 24 21 23 24 27 26 26 25 27
16 15 15 19 15 18 16 16 16 16 14 14 13 10 8 6 6 6 6 2 4 5 7 7 7 9 11 12 14 17 18 21 25 24 26 27 27 27 28 28 29 32 32
26 26 24 20 16 18 19 18 20 18 17 18 16 14 10 10 10 7 6 6 7 7 9 10 11 13 16 16 16 17 19 22 22 25 26 27 26 28 29 31 33 35 36
31 31 25 19 20 20 21 23 22 22 20 20 20 18 15 12 13 13 11 11 10 9 10 10 11 13 14 16 16 17 20 19 20 23 26 27 29 30 30 32 34 36 38
33 31 27 22 21 23 26 27 27 25 25 23 22 22 19 15 13 14 13 14 15 14 14 14 14 14 14 14 15 17 20 20 22 26 28 27 31 31 31 32 33 35 36
36 36 31 26 20 18 22 24 27 26 25 27 27 24 22 20 19 18 17 15 16 19 18 18 19 19 18 18 21 23 24 25 26 29 30 29 33 30 31 33 34 37 40
42 34 31 27 22 22 23 26 24 22 25 27 28 27 26 25 25 25 23 22 21 19 20 22 25 24 25 23 23 25 26 27 29 32 32 31 33 31 32 37 38 41 45
45 38 34 28 29 28 28 28 30 27 26 23 27 28 29 30 30 30 30 29 27 27 27 27 27 29 30 28 27 28 31 32 30 32 33 34 36 38 38 40 40 44 47
43 42 40 38 35 34 33 34 35 35 32 32 29 30 34 34 32 32 31 35 35 35 36 34 34 34 33 31 32 32 33 35 37 36 37 39 41 40 41 43 45 49 49
48 45 40 43 38 41 37 38 39 39 38 38 33 35 35 34 36 38 40 38 37 39 37 37 39 40 39 37 38 39 40 41 41 40 41 44 44 44 45 46 49 51 50
56 45 45 45 43 38 36 39 39 39 39 36 40 38 37 38 39 40 41 41 43 42 42 43 43 44 44 42 43 43 44 48 47 46 46 48 47 46 48 52 52 52 51
40 35 39 45 44 35 39 45 44 43 42 42 42 40 41 43 44 42 44 45 45 46 47 46 47 50 49 48 49 49 50 51 50 52 53 51 51 51 52 55 55 56 57
30 33 35 35 35 37 40 41 44 45 46 47 48 47 46 48 45 45 45 45 47 49 51 52 53 53 52 53 54 55 55 56 55 56 58 58 57 57 60 60 60 61 62
34 37 40 40 38 39 42 45 46 47 48 49 50 51 51 51 51 52 50 50 50 51 54 57 60 60 59 60 60 61 61 62 60 61 63 63 62 61 61 63 66 67 69
35 36 37 38 38 39 43 45 47 48 49 50 51 52 53 55 55 57 59 60 60 61 61 63 65 66 67 66 68 65 66 64 68 67 69 71 67 67 66 69 71 72 75
38 37 37 40 41 42 44 44 44 44 44 45 47 48 48 50 53 54 57 60 62 64 66 68 69 70 71 71 71 73 73 71 71 73 70 72 75 76 73 78 86 81 71
40 42 43 42 43 42 42 42 42 42 44 45 47 49 50 51 53 56 57 57 60 63 66 68 71 74 74 76 77 77 79 78 78 74 66 79 71 66 82 76 80 86 85
42 40 41 40 40 41 42 42 43 44 46 48 50 53 55 57 58 59 61 61 62 64 67 69 70 70 71 72 75 82 76 65 76 72 64 71 74 79 77 69 79 80 78
39 40 40 40 40 42 43 46 47 49 50 53 55 57 59 61 62 63 64 64 64 63 62 62 61 59 63 68 70 64 62 78 75 74 81 78 79 72 79 69 72 74 80

GFSMW_500_spd_069.txt.gz
Wind_Speed
24 17 14 11 12 12 9 11 12 12 11 9 12 16 12 14 19 24 36 34 35 31 26 29 30 28 22 25 24 24 26 27 30 32 32 35 36 34 31 29 27 27 27
20 15 13 11 10 10 8 10 11 11 7 8 11 12 8 13 15 20 27 39 41 40 33 31 29 29 30 33 31 28 29 30 28 30 32 36 39 34 34 32 32 31 31
21 17 14 10 9 10 10 11 11 11 7 7 7 2 9 14 15 20 26 31 35 41 41 35 39 30 32 30 29 27 26 27 27 29 31 31 42 41 38 37 39 37 34
22 20 16 10 10 11 11 13 11 10 7 6 5 5 7 9 13 16 23 28 35 40 37 34 39 35 31 30 31 32 28 28 27 24 25 31 35 45 31 36 44 41 34
21 19 12 11 10 12 12 13 11 10 7 8 5 5 5 4 5 12 12 17 22 26 40 34 33 35 31 30 32 31 28 28 29 25 26 20 28 31 29 31 34 35 34
25 21 16 12 13 11 12 12 11 10 10 9 8 3 5 5 4 3 10 13 23 22 31 32 33 33 33 32 33 26 31 30 30 28 28 28 30 29 30 33 36 36 36
28 24 15 9 16 11 12 14 13 12 11 9 10 7 2 4 4 3 2 8 19 25 27 28 32 31 32 35 29 30 29 26 30 31 26 29 34 31 28 31 34 32 31
28 23 17 11 15 13 10 13 15 14 14 12 11 11 7 3 5 8 4 1 7 14 21 28 29 27 26 26 27 30 27 35 30 38 24 28 28 29 30 29 26 24 28
26 24 21 15 15 16 15 11 15 17 16 16 14 13 11 9 6 7 11 5 4 6 12 16 17 19 21 22 26 22 23 25 30 30 31 33 31 29 25 24 27 30 31
27 25 20 20 21 19 20 16 14 16 18 20 18 17 15 13 10 9 7 9 9 8 9 10 12 13 15 16 17 15 19 21 24 26 31 32 28 25 24 26 29 32 33
28 28 24 23 21 19 22 21 18 18 18 20 20 20 19 18 16 15 13 10 11 10 11 12 13 13 15 17 18 18 20 19 19 21 24 25 26 26 27 30 34 35 35
29 26 26 23 22 22 23 21 20 20 20 21 22 22 22 22 21 18 19 16 15 15 14 14 15 17 18 19 19 20 21 22 24 25 26 25 30 29 30 32 35 36 38
34 31 31 28 26 25 24 23 22 21 21 19 22 24 25 25 24 22 19 18 16 17 19 18 19 19 21 22 21 21 21 22 24 26 27 29 34 31 32 35 37 38 39
40 37 35 35 30 29 27 25 26 26 23 24 27 27 28 27 26 25 24 24 23 22 21 22 24 24 26 25 25 26 27 27 30 32 32 33 35 34 36 39 40 40 44
46 43 38 37 34 32 31 28 27 28 28 27 22 24 30 29 30 29 28 28 28 29 29 29 29 29 30 29 30 32 32 32 33 35 35 36 37 37 38 41 41 43 46
51 48 43 39 38 35 33 33 33 29 30 30 30 29 29 30 32 34 34 35 34 34 35 32 33 36 36 35 36 37 37 39 39 39 38 39 42 42 41 43 44 47 50
45 46 41 46 41 37 40 35 36 32 33 34 35 34 35 37 37 37 39 40 41 39 38 38 37 37 38 41 42 44 45 45 45 45 45 44 44 44 46 48 50 53 55
51 49 46 43 47 44 45 45 44 39 37 39 38 39 41 41 42 43 43 43 43 44 43 42 42 42 42 42 45 46 49 51 50 51 50 52 52 51 50 52 55 56 58
39 45 51 45 47 50 48 42 44 46 42 42 44 40 39 41 45 48 47 49 49 50 50 50 50 50 49 49 52 54 55 56 56 55 55 57 56 57 59 59 60 61 61
44 46 37 37 44 46 46 46 48 47 41 39 41 41 42 44 43 44 49 53 52 50 51 53 55 56 57 58 57 58 59 61 63 64 65 62 63 61 62 62 65 66 67
16 19 23 26 27 29 32 34 38 41 43 45 46 46 48 48 48 48 48 51 52 56 53 55 54 56 59 61 61 63 64 65 67 70 69 68 68 68 70 69 71 72 74
28 25 26 30 32 34 36 37 39 42 45 45 46 48 49 50 51 50 49 51 52 55 57 61 63 62 60 61 63 65 65 68 72 75 78 79 75 73 73 75 74 81 67
31 29 30 30 31 32 34 36 39 42 45 46 48 50 51 53 54 55 54 53 53 53 54 57 62 65 66 67 68 69 70 70 70 73 76 80 76 82 81 81 83 80 86
35 34 38 37 33 32 34 37 40 43 46 48 49 50 50 51 53 54 54 56 57 59 60 61 62 64 66 69 71 73 73 73 72 73 73 77 80 79 78 74 87 82 92
34 36 37 38 41 41 42 42 44 46 46 47 47 47 48 50 52 54 57 59 62 64 66 67 67 67 68 70 71 71 73 73 71 68 67 67 70 75 77 76 78 65 72
41 43 46 50 51 48 45 44 44 46 47 46 48 49 52 54 56 58 60 62 65 67 71 74 76 75 74 74 75 75 74 74 70 64 70 65 68 66 71 73 80 78 79